BAW83 EGLL-DNAA

Flight info

Callsign BAW83
Flight time N/A
Altitude 35000
Route MODMI M185 MID L151 SITET UN859 SOPIL DCT BALAN DCT EVPOK DCT NARAK DCT GAI DCT LOMRA DCT ROCAN DCT PUMAL N859 MOGIL UB31 ZEM/N0483F360 UB726 GHA/N0481F370 UA615 TMS UA604 MIMBA/N0488F380 DCT OXORU OXORU1N
Aircraft B77W/H-SDE1E2E3FGHIJ2J3J4J5M1RWXY/LB1D1

Departure

Time 2026-05-06 23:18
Airport London Heathrow Airport (EGLL)

Arrival

Time N/A
Airport Nnamdi Azikiwe International Airport (DNAA)
Time Latitude Longitude Altitude Speed Heading
2026-05-06 22:16 51.46916 -0.48236 91 ft 0 kts 89°
2026-05-06 23:09 51.46916 -0.48255 91 ft 4 kts 89°
2026-05-06 23:09 51.46915 -0.48297 91 ft 2 kts 89°
2026-05-06 23:09 51.46917 -0.48331 91 ft 4 kts 117°
2026-05-06 23:09 51.46934 -0.48355 94 ft 4 kts 178°
2026-05-06 23:10 51.46959 -0.48355 93 ft 4 kts 179°
2026-05-06 23:10 51.46971 -0.48355 92 ft 0 kts 179°
2026-05-06 23:12 51.46964 -0.48355 93 ft 3 kts 179°
2026-05-06 23:12 51.46932 -0.48355 94 ft 6 kts 179°
2026-05-06 23:13 51.46885 -0.48354 91 ft 7 kts 179°
2026-05-06 23:13 51.46838 -0.48353 91 ft 7 kts 179°
2026-05-06 23:13 51.46792 -0.48353 91 ft 7 kts 179°
2026-05-06 23:13 51.46750 -0.48374 95 ft 7 kts 234°
2026-05-06 23:14 51.46743 -0.48450 91 ft 7 kts 269°
2026-05-06 23:14 51.46742 -0.48529 91 ft 7 kts 269°
2026-05-06 23:14 51.46741 -0.48608 91 ft 7 kts 269°
2026-05-06 23:14 51.46740 -0.48687 91 ft 7 kts 268°
2026-05-06 23:15 51.46710 -0.48741 94 ft 7 kts 196°
2026-05-06 23:15 51.46661 -0.48748 92 ft 7 kts 185°
2026-05-06 23:15 51.46611 -0.48759 94 ft 7 kts 191°
2026-05-06 23:15 51.46564 -0.48784 94 ft 7 kts 199°
2026-05-06 23:16 51.46515 -0.48778 96 ft 7 kts 151°
2026-05-06 23:16 51.46485 -0.48714 95 ft 7 kts 114°
2026-05-06 23:16 51.46479 -0.48635 93 ft 7 kts 90°
2026-05-06 23:16 51.46479 -0.48529 91 ft 19 kts 90°
2026-05-06 23:17 51.46481 -0.48104 93 ft 67 kts 89°
2026-05-06 23:17 51.46482 -0.47428 91 ft 115 kts 90°
2026-05-06 23:17 51.46491 -0.45800 93 ft 174 kts 89°
2026-05-06 23:17 51.46497 -0.43772 574 ft 179 kts 88°
2026-05-06 23:18 51.46427 -0.41115 1431 ft 187 kts 103°
2026-05-06 23:18 51.46079 -0.39807 1603 ft 199 kts 120°
2026-05-06 23:18 51.45256 -0.37987 2158 ft 201 kts 132°
2026-05-06 23:18 51.44069 -0.36765 2600 ft 211 kts 160°
2026-05-06 23:19 51.42111 -0.35783 3102 ft 231 kts 160°
2026-05-06 23:19 51.41064 -0.35324 3464 ft 234 kts 174°
2026-05-06 23:19 51.39409 -0.35721 3707 ft 252 kts 207°
2026-05-06 23:19 51.37866 -0.37070 4158 ft 262 kts 209°
2026-05-06 23:20 51.36234 -0.38417 4918 ft 266 kts 207°
2026-05-06 23:20 51.34566 -0.39743 5728 ft 268 kts 207°
2026-05-06 23:20 51.32889 -0.41062 6523 ft 270 kts 207°
2026-05-06 23:20 51.31190 -0.42400 7240 ft 273 kts 207°
2026-05-06 23:21 51.29470 -0.43752 7934 ft 277 kts 207°
2026-05-06 23:21 51.27717 -0.45127 8624 ft 282 kts 207°
2026-05-06 23:21 51.25956 -0.46535 9341 ft 285 kts 208°
2026-05-06 23:21 51.24167 -0.47974 10023 ft 289 kts 208°
2026-05-06 23:22 51.22340 -0.49431 10515 ft 301 kts 207°
2026-05-06 23:22 51.20383 -0.50953 10696 ft 325 kts 207°
2026-05-06 23:22 51.18277 -0.52578 10884 ft 349 kts 207°
2026-05-06 23:22 51.16025 -0.54315 11202 ft 368 kts 207°
2026-05-06 23:23 51.13688 -0.56115 11841 ft 377 kts 207°
2026-05-06 23:23 51.11326 -0.57936 12654 ft 383 kts 207°
2026-05-06 23:23 51.08882 -0.59819 13623 ft 387 kts 206°
2026-05-06 23:23 51.06396 -0.61274 14305 ft 391 kts 191°
2026-05-06 23:24 51.03654 -0.61275 15042 ft 399 kts 169°
2026-05-06 23:24 51.01040 -0.59794 15845 ft 399 kts 156°
2026-05-06 23:24 50.98475 -0.57976 16528 ft 407 kts 157°
2026-05-06 23:24 50.95837 -0.56195 17315 ft 412 kts 158°
2026-05-06 23:25 50.93185 -0.54437 18167 ft 416 kts 158°
2026-05-06 23:25 50.90505 -0.52671 18912 ft 420 kts 158°
2026-05-06 23:25 50.87791 -0.50887 19623 ft 424 kts 158°
2026-05-06 23:25 50.85056 -0.49092 20327 ft 427 kts 158°
2026-05-06 23:26 50.82295 -0.47282 21024 ft 431 kts 159°
2026-05-06 23:26 50.79509 -0.45457 21681 ft 436 kts 159°
2026-05-06 23:26 50.76697 -0.43618 22356 ft 440 kts 159°
2026-05-06 23:26 50.73855 -0.41762 23005 ft 444 kts 159°
2026-05-06 23:27 50.70982 -0.39887 23636 ft 448 kts 159°
2026-05-06 23:27 50.68121 -0.38023 24155 ft 452 kts 159°
2026-05-06 23:27 50.65200 -0.36122 24697 ft 455 kts 159°
2026-05-06 23:27 50.62261 -0.34213 25231 ft 458 kts 159°
2026-05-06 23:28 50.59297 -0.32289 25750 ft 462 kts 159°
2026-05-06 23:28 50.56310 -0.30353 26232 ft 465 kts 159°
2026-05-06 23:28 50.53299 -0.28405 26725 ft 469 kts 159°
2026-05-06 23:28 50.50267 -0.26445 27200 ft 472 kts 159°
2026-05-06 23:29 50.47217 -0.24476 27660 ft 475 kts 159°
2026-05-06 23:29 50.44189 -0.22525 28110 ft 478 kts 159°
2026-05-06 23:29 50.41103 -0.20539 28525 ft 481 kts 159°
2026-05-06 23:29 50.37989 -0.18537 28920 ft 484 kts 159°
2026-05-06 23:30 50.34856 -0.16527 29308 ft 487 kts 159°
2026-05-06 23:30 50.31713 -0.14512 29678 ft 490 kts 159°
2026-05-06 23:30 50.28539 -0.12480 30057 ft 492 kts 159°
2026-05-06 23:30 50.25367 -0.10451 30468 ft 491 kts 159°
2026-05-06 23:31 50.22249 -0.08461 30950 ft 489 kts 159°
2026-05-06 23:31 50.19106 -0.06424 31392 ft 488 kts 158°
2026-05-06 23:31 50.16012 -0.04260 31765 ft 488 kts 157°
2026-05-06 23:31 50.12921 -0.02059 32142 ft 488 kts 157°
2026-05-06 23:32 50.09795 -0.00006 32557 ft 486 kts 161°
2026-05-06 23:32 50.06576 0.01526 32928 ft 484 kts 167°
2026-05-06 23:32 50.03304 0.02756 33323 ft 483 kts 168°
2026-05-06 23:32 50.00033 0.03979 33719 ft 482 kts 168°
2026-05-06 23:33 49.96778 0.05214 34065 ft 481 kts 167°
2026-05-06 23:33 49.93521 0.06468 34312 ft 482 kts 167°
2026-05-06 23:33 49.90263 0.07737 34549 ft 483 kts 167°
2026-05-06 23:33 49.87048 0.08995 34807 ft 483 kts 167°
2026-05-06 23:34 49.83785 0.10272 34966 ft 486 kts 167°
2026-05-06 23:34 49.77203 0.12841 35031 ft 487 kts 167°
2026-05-06 23:35 49.70673 0.15380 35026 ft 481 kts 167°
2026-05-06 23:35 49.64184 0.17934 35046 ft 481 kts 166°
2026-05-06 23:36 49.57706 0.20574 35051 ft 481 kts 166°
2026-05-06 23:36 49.51275 0.23189 35019 ft 482 kts 166°
2026-05-06 23:37 49.44784 0.25808 35024 ft 483 kts 166°
2026-05-06 23:37 49.38273 0.28424 35026 ft 484 kts 166°
2026-05-06 23:38 49.31760 0.31035 35027 ft 485 kts 166°
2026-05-06 23:38 49.25241 0.33722 35018 ft 485 kts 166°
2026-05-06 23:39 49.18730 0.36483 35037 ft 485 kts 166°
2026-05-06 23:39 49.12216 0.39230 35035 ft 486 kts 166°
2026-05-06 23:40 49.05698 0.41957 35028 ft 486 kts 166°
2026-05-06 23:40 48.99180 0.44673 35041 ft 485 kts 166°
2026-05-06 23:41 48.92693 0.47369 35040 ft 486 kts 166°
2026-05-06 23:41 48.86172 0.50074 35038 ft 486 kts 166°
2026-05-06 23:42 48.79634 0.52779 35033 ft 486 kts 166°
2026-05-06 23:42 48.73081 0.55392 35037 ft 486 kts 166°
2026-05-06 23:43 48.66523 0.57928 35035 ft 486 kts 166°
2026-05-06 23:43 48.59968 0.60475 35034 ft 487 kts 166°
2026-05-06 23:44 48.53444 0.63016 35034 ft 487 kts 166°
2026-05-06 23:44 48.46884 0.65627 35034 ft 487 kts 166°
2026-05-06 23:45 48.40337 0.68308 35036 ft 488 kts 165°
2026-05-06 23:45 48.33777 0.70977 35030 ft 488 kts 166°
2026-05-06 23:46 48.27209 0.73629 35028 ft 488 kts 166°
2026-05-06 23:46 48.20636 0.76254 35020 ft 489 kts 166°
2026-05-06 23:47 48.14051 0.78838 35025 ft 489 kts 166°
2026-05-06 23:47 48.07500 0.81404 35028 ft 490 kts 166°
2026-05-06 23:48 48.00913 0.83984 35022 ft 490 kts 166°
2026-05-06 23:48 47.94298 0.86570 35030 ft 490 kts 166°
2026-05-06 23:49 47.87690 0.89147 35026 ft 491 kts 166°
2026-05-06 23:49 47.81125 0.91698 35024 ft 491 kts 166°
2026-05-06 23:50 47.74517 0.94253 35016 ft 491 kts 166°
2026-05-06 23:50 47.64594 0.98080 35019 ft 491 kts 166°
2026-05-06 23:51 47.57970 1.00627 35010 ft 491 kts 166°
2026-05-06 23:51 47.51398 1.03149 35019 ft 491 kts 166°
2026-05-06 23:52 47.44763 1.05564 35013 ft 490 kts 171°
2026-05-06 23:52 47.37994 1.06440 35008 ft 488 kts 182°
2026-05-06 23:53 47.31201 1.06188 35025 ft 488 kts 182°
2026-05-06 23:53 47.24408 1.05981 35014 ft 488 kts 182°
2026-05-06 23:54 47.17601 1.05826 35020 ft 489 kts 182°
2026-05-06 23:54 47.10801 1.05681 35016 ft 489 kts 182°
2026-05-06 23:55 47.04046 1.05532 35010 ft 489 kts 182°
2026-05-06 23:55 46.97243 1.05312 35017 ft 489 kts 183°
2026-05-06 23:56 46.90438 1.04992 35009 ft 488 kts 183°
2026-05-06 23:56 46.83640 1.04678 35010 ft 488 kts 183°
2026-05-06 23:57 46.76849 1.04382 35013 ft 488 kts 183°
2026-05-06 23:57 46.70094 1.04093 35007 ft 488 kts 183°
2026-05-06 23:58 46.63307 1.03801 35006 ft 488 kts 183°
2026-05-06 23:58 46.56504 1.03510 35006 ft 488 kts 183°
2026-05-06 23:59 46.49719 1.03957 35014 ft 490 kts 173°
2026-05-06 23:59 46.43086 1.06038 35014 ft 490 kts 167°
2026-05-07 00:00 46.36447 1.08338 35013 ft 491 kts 168°
2026-05-07 00:00 46.30907 1.10216 35011 ft 491 kts 168°
2026-05-07 00:01 46.23119 1.12810 35003 ft 491 kts 168°
2026-05-07 00:01 46.16499 1.15001 35002 ft 491 kts 168°
2026-05-07 00:02 46.09829 1.17206 34998 ft 491 kts 168°
2026-05-07 00:02 46.03166 1.19404 35003 ft 491 kts 168°
2026-05-07 00:03 45.96496 1.21600 34995 ft 492 kts 168°
2026-05-07 00:03 45.89827 1.23790 34990 ft 491 kts 169°
2026-05-07 00:04 45.83196 1.25962 34996 ft 491 kts 169°
2026-05-07 00:04 45.76527 1.28142 34989 ft 491 kts 169°
2026-05-07 00:05 45.69857 1.30316 34987 ft 491 kts 169°
2026-05-07 00:05 45.63187 1.32485 34996 ft 491 kts 169°
2026-05-07 00:06 45.56521 1.34648 34980 ft 492 kts 169°
2026-05-07 00:06 45.49882 1.36797 34988 ft 491 kts 169°
2026-05-07 00:07 45.43222 1.38947 34985 ft 491 kts 169°
2026-05-07 00:07 45.36562 1.41091 34979 ft 491 kts 169°
2026-05-07 00:08 45.29897 1.43233 34988 ft 490 kts 169°
2026-05-07 00:08 45.23240 1.45368 34990 ft 490 kts 169°
2026-05-07 00:09 45.16630 1.47483 34988 ft 490 kts 170°
2026-05-07 00:09 45.09976 1.49607 34997 ft 489 kts 170°
2026-05-07 00:10 45.03332 1.51722 34987 ft 489 kts 170°
2026-05-07 00:10 44.96691 1.53832 34984 ft 489 kts 170°
2026-05-07 00:11 44.90049 1.55937 34991 ft 489 kts 170°
2026-05-07 00:11 44.83457 1.58020 34988 ft 488 kts 170°
2026-05-07 00:12 44.76813 1.60115 34990 ft 489 kts 170°
2026-05-07 00:12 44.70177 1.62204 34990 ft 489 kts 170°
2026-05-07 00:13 44.63572 1.64277 34994 ft 489 kts 170°
2026-05-07 00:13 44.56944 1.66354 34990 ft 488 kts 171°
2026-05-07 00:14 44.51427 1.68078 35001 ft 488 kts 171°
2026-05-07 00:14 44.44804 1.70144 35001 ft 488 kts 171°
2026-05-07 00:15 44.38181 1.72205 34992 ft 487 kts 171°
2026-05-07 00:15 44.31559 1.74261 35002 ft 487 kts 171°
2026-05-07 00:16 44.24918 1.75982 35007 ft 484 kts 174°
2026-05-07 00:16 44.18260 1.77406 35008 ft 483 kts 175°
2026-05-07 00:17 44.11657 1.78832 35005 ft 483 kts 175°
2026-05-07 00:17 44.05023 1.80289 35016 ft 483 kts 175°
2026-05-07 00:18 43.98387 1.81746 35004 ft 482 kts 175°
2026-05-07 00:18 43.91755 1.82841 35024 ft 477 kts 180°
2026-05-07 00:19 43.85124 1.83441 35014 ft 477 kts 180°
2026-05-07 00:19 43.78492 1.84050 35007 ft 477 kts 181°
2026-05-07 00:20 43.71868 1.84685 35027 ft 476 kts 180°
2026-05-07 00:20 43.65294 1.85324 35024 ft 477 kts 180°
2026-05-07 00:21 43.58677 1.85966 35017 ft 476 kts 181°
2026-05-07 00:21 43.52072 1.86602 35026 ft 476 kts 180°
2026-05-07 00:22 43.45459 1.87238 35028 ft 476 kts 180°
2026-05-07 00:22 43.38860 1.87872 35023 ft 475 kts 180°
2026-05-07 00:23 43.32312 1.88500 35023 ft 474 kts 180°
2026-05-07 00:23 43.25717 1.89135 35037 ft 474 kts 180°
2026-05-07 00:24 43.19132 1.89769 35025 ft 474 kts 181°
2026-05-07 00:24 43.12560 1.90398 35033 ft 473 kts 181°
2026-05-07 00:25 43.06025 1.91023 35045 ft 473 kts 181°
2026-05-07 00:25 42.99457 1.91649 35017 ft 473 kts 181°
2026-05-07 00:26 42.92896 1.92275 35034 ft 472 kts 181°
2026-05-07 00:26 42.86385 1.92894 35045 ft 471 kts 181°
2026-05-07 00:27 42.79847 1.93514 35040 ft 471 kts 181°
2026-05-07 00:27 42.73293 1.94134 35044 ft 471 kts 181°
2026-05-07 00:28 42.66742 1.94786 35036 ft 473 kts 179°
2026-05-07 00:28 42.60253 1.96065 35050 ft 475 kts 176°
2026-05-07 00:29 42.53719 1.97408 35041 ft 474 kts 176°
2026-05-07 00:30 42.40667 2.00012 35046 ft 474 kts 177°
2026-05-07 00:30 42.34139 2.01115 35029 ft 470 kts 181°
2026-05-07 00:31 42.27620 2.01718 35042 ft 469 kts 181°
2026-05-07 00:31 42.21115 2.02310 35032 ft 468 kts 181°
2026-05-07 00:32 42.14660 2.02919 35026 ft 467 kts 181°
2026-05-07 00:32 42.08173 2.03542 35042 ft 466 kts 181°
2026-05-07 00:33 42.01702 2.04162 35042 ft 466 kts 181°
2026-05-07 00:33 41.95232 2.04780 35011 ft 466 kts 181°
2026-05-07 00:34 41.88753 2.05397 35031 ft 466 kts 181°
2026-05-07 00:34 41.82319 2.06009 35027 ft 466 kts 181°
2026-05-07 00:35 41.75825 2.06624 35026 ft 467 kts 181°
2026-05-07 00:35 41.69345 2.07240 35022 ft 466 kts 181°
2026-05-07 00:36 41.62882 2.07842 35019 ft 465 kts 181°
2026-05-07 00:36 41.56430 2.08434 35016 ft 465 kts 181°
2026-05-07 00:37 41.49976 2.09030 35019 ft 464 kts 182°
2026-05-07 00:37 41.43585 2.09618 35024 ft 463 kts 182°
2026-05-07 00:38 41.37144 2.10209 35019 ft 463 kts 182°
2026-05-07 00:38 41.30709 2.10954 35006 ft 466 kts 177°
2026-05-07 00:39 41.24350 2.12973 35029 ft 471 kts 171°
2026-05-07 00:39 41.18021 2.15303 35017 ft 471 kts 171°
2026-05-07 00:40 41.11727 2.17572 35012 ft 471 kts 171°
2026-05-07 00:40 41.05397 2.19823 34997 ft 471 kts 171°
2026-05-07 00:41 40.99064 2.22067 34994 ft 471 kts 171°
2026-05-07 00:41 40.92731 2.24309 34987 ft 471 kts 171°
2026-05-07 00:42 40.86400 2.26547 34971 ft 470 kts 171°
2026-05-07 00:42 40.80118 2.28764 34976 ft 469 kts 172°
2026-05-07 00:43 40.73809 2.30987 34979 ft 468 kts 172°
2026-05-07 00:43 40.67525 2.33203 34980 ft 467 kts 172°
2026-05-07 00:44 40.61253 2.35406 34977 ft 466 kts 172°
2026-05-07 00:44 40.54988 2.37575 34978 ft 466 kts 172°
2026-05-07 00:45 40.48759 2.39728 34980 ft 466 kts 172°
2026-05-07 00:45 40.42497 2.41898 34978 ft 466 kts 172°
2026-05-07 00:46 40.36229 2.44069 34977 ft 466 kts 172°
2026-05-07 00:46 40.29957 2.46236 34976 ft 466 kts 172°
2026-05-07 00:47 40.23689 2.48398 34973 ft 466 kts 172°
2026-05-07 00:47 40.17433 2.50553 34962 ft 464 kts 172°
2026-05-07 00:48 40.11188 2.52706 34965 ft 463 kts 172°
2026-05-07 00:48 40.05007 2.54835 34966 ft 462 kts 172°
2026-05-07 00:49 39.98791 2.56971 34952 ft 461 kts 173°
2026-05-07 00:49 39.92598 2.59096 34963 ft 460 kts 173°
2026-05-07 00:50 39.86412 2.61214 34966 ft 459 kts 173°
2026-05-07 00:50 39.80236 2.63324 34964 ft 459 kts 173°
2026-05-07 00:51 39.74057 2.65431 34965 ft 459 kts 173°
2026-05-07 00:51 39.67877 2.67535 34941 ft 458 kts 173°
2026-05-07 00:52 39.61746 2.69616 34960 ft 459 kts 173°
2026-05-07 00:52 39.55567 2.71716 34965 ft 459 kts 173°
2026-05-07 00:53 39.49377 2.73812 34972 ft 460 kts 173°
2026-05-07 00:53 39.43188 2.75904 34968 ft 460 kts 173°
2026-05-07 00:54 39.36988 2.78046 34958 ft 461 kts 173°
2026-05-07 00:54 39.30834 2.80196 34917 ft 461 kts 173°
2026-05-07 00:55 39.24645 2.82349 34941 ft 460 kts 173°
2026-05-07 00:55 39.18418 2.84505 34951 ft 461 kts 173°
2026-05-07 00:56 39.12263 2.86632 34948 ft 461 kts 173°
2026-05-07 00:56 39.06052 2.88775 34934 ft 461 kts 174°
2026-05-07 00:57 38.99845 2.90903 34952 ft 461 kts 174°
2026-05-07 00:57 38.93672 2.92975 34946 ft 461 kts 174°
2026-05-07 00:58 38.87460 2.95084 34943 ft 462 kts 174°
2026-05-07 00:58 38.81242 2.97217 34938 ft 462 kts 174°
2026-05-07 00:59 38.71925 3.00400 34944 ft 462 kts 174°
2026-05-07 01:00 38.65712 3.02514 34941 ft 462 kts 174°
2026-05-07 01:00 38.59527 3.04616 34920 ft 462 kts 175°
2026-05-07 01:01 38.53313 3.06723 34928 ft 461 kts 175°
2026-05-07 01:01 38.47108 3.08823 34936 ft 462 kts 175°
2026-05-07 01:02 38.40890 3.10924 34934 ft 462 kts 175°
2026-05-07 01:02 38.34705 3.13012 34935 ft 463 kts 175°
2026-05-07 01:03 38.28469 3.15112 34928 ft 463 kts 175°
2026-05-07 01:03 38.22241 3.17190 34927 ft 463 kts 175°
2026-05-07 01:04 38.16006 3.19265 34925 ft 463 kts 175°
2026-05-07 01:04 38.09778 3.21267 34920 ft 459 kts 178°
2026-05-07 01:05 38.03589 3.22981 34921 ft 457 kts 179°
2026-05-07 01:05 37.97373 3.24662 34920 ft 457 kts 179°
2026-05-07 01:06 37.91157 3.26374 34916 ft 457 kts 179°
2026-05-07 01:06 37.84952 3.28105 34910 ft 456 kts 180°
2026-05-07 01:07 37.78757 3.29833 34917 ft 456 kts 180°
2026-05-07 01:07 37.72557 3.31558 34915 ft 456 kts 180°
2026-05-07 01:08 37.66401 3.33268 34880 ft 456 kts 181°
2026-05-07 01:08 37.60214 3.34986 34903 ft 455 kts 181°
2026-05-07 01:09 37.54027 3.36697 34908 ft 455 kts 181°
2026-05-07 01:09 37.47845 3.38403 34914 ft 455 kts 181°
2026-05-07 01:10 37.41657 3.40110 34887 ft 455 kts 182°
2026-05-07 01:10 37.35525 3.41800 34901 ft 454 kts 182°
2026-05-07 01:11 37.29346 3.43498 34906 ft 454 kts 182°
2026-05-07 01:11 37.24211 3.44907 34907 ft 454 kts 182°
2026-05-07 01:12 37.18039 3.46599 34875 ft 454 kts 182°
2026-05-07 01:12 37.10882 3.48558 34899 ft 453 kts 182°
2026-05-07 01:13 37.05759 3.49958 34904 ft 452 kts 182°
2026-05-07 01:13 36.99615 3.51633 34904 ft 452 kts 182°
2026-05-07 01:14 36.93467 3.53306 34861 ft 451 kts 182°
2026-05-07 01:14 36.87339 3.54973 34898 ft 450 kts 182°
2026-05-07 01:15 36.81226 3.56633 34908 ft 450 kts 182°
2026-05-07 01:15 36.75158 3.58942 34920 ft 465 kts 175°
2026-05-07 01:16 36.69080 3.61702 34885 ft 465 kts 175°
2026-05-07 01:16 36.62989 3.64435 34896 ft 464 kts 175°
2026-05-07 01:17 36.56920 3.67130 34911 ft 463 kts 175°
2026-05-07 01:17 36.50852 3.69811 34901 ft 462 kts 175°
2026-05-07 01:18 36.44801 3.72484 34905 ft 461 kts 175°
2026-05-07 01:18 36.38812 3.75126 34894 ft 459 kts 175°
2026-05-07 01:19 36.32800 3.77765 34911 ft 458 kts 175°
2026-05-07 01:19 36.26788 3.80386 34909 ft 458 kts 175°
2026-05-07 01:20 36.20754 3.83013 34908 ft 459 kts 175°
2026-05-07 01:20 36.14757 3.85623 34899 ft 460 kts 175°
2026-05-07 01:21 36.08705 3.88253 34891 ft 461 kts 175°
2026-05-07 01:21 36.02650 3.90883 34909 ft 461 kts 175°
2026-05-07 01:22 35.96594 3.93506 34905 ft 462 kts 175°
2026-05-07 01:22 35.90523 3.96131 34896 ft 462 kts 175°
2026-05-07 01:23 35.84446 3.98757 34892 ft 462 kts 175°
2026-05-07 01:23 35.78382 4.01373 34895 ft 462 kts 175°
2026-05-07 01:24 35.72357 4.03967 34888 ft 461 kts 175°
2026-05-07 01:24 35.66303 4.06569 34856 ft 460 kts 174°
2026-05-07 01:25 35.60269 4.09169 34874 ft 459 kts 174°
2026-05-07 01:25 35.54233 4.11770 34895 ft 459 kts 174°
2026-05-07 01:26 35.48201 4.14365 34890 ft 459 kts 174°
2026-05-07 01:26 35.42202 4.16941 34855 ft 459 kts 174°
2026-05-07 01:27 35.36156 4.19378 34878 ft 448 kts 181°
2026-05-07 01:27 35.33131 4.19972 34878 ft 435 kts 188°
2026-05-07 01:27 35.30122 4.20167 34889 ft 431 kts 192°
2026-05-07 01:28 35.24220 4.19529 34900 ft 425 kts 199°
2026-05-07 01:28 35.18360 4.18608 34887 ft 424 kts 199°
2026-05-07 01:29 35.12519 4.17717 34888 ft 422 kts 198°
2026-05-07 01:29 35.06735 4.16852 34875 ft 421 kts 198°
2026-05-07 01:30 35.00928 4.15989 34891 ft 420 kts 198°
2026-05-07 01:30 34.95134 4.15127 34898 ft 420 kts 198°
2026-05-07 01:31 34.89336 4.14266 34889 ft 419 kts 198°
2026-05-07 01:31 34.83541 4.13409 34889 ft 420 kts 198°
2026-05-07 01:32 34.77737 4.12551 34898 ft 420 kts 198°
2026-05-07 01:32 34.71971 4.11700 34898 ft 420 kts 198°
2026-05-07 01:33 34.66163 4.10844 34872 ft 421 kts 198°
2026-05-07 01:33 34.60353 4.09989 34891 ft 421 kts 198°
2026-05-07 01:34 34.54527 4.09133 34889 ft 422 kts 198°
2026-05-07 01:34 34.48685 4.08275 34886 ft 423 kts 198°
2026-05-07 01:35 34.42835 4.07420 34869 ft 423 kts 198°
2026-05-07 01:35 34.37034 4.06570 34887 ft 423 kts 197°
2026-05-07 01:36 34.31182 4.05715 34880 ft 424 kts 197°
2026-05-07 01:36 34.25313 4.04857 34865 ft 425 kts 197°
2026-05-07 01:37 34.19430 4.04000 34864 ft 426 kts 197°
2026-05-07 01:37 34.13542 4.03144 34842 ft 426 kts 197°
2026-05-07 01:38 34.07650 4.02285 34963 ft 428 kts 197°
2026-05-07 01:38 34.04730 4.01854 35275 ft 427 kts 197°
2026-05-07 01:38 34.01791 4.01421 35657 ft 424 kts 197°
2026-05-07 01:38 33.98872 4.00991 36037 ft 421 kts 197°
2026-05-07 01:39 33.95964 4.00562 36372 ft 420 kts 198°
2026-05-07 01:39 33.93065 4.00133 36660 ft 419 kts 198°
2026-05-07 01:39 33.90161 3.99702 36782 ft 422 kts 198°
2026-05-07 01:40 33.84323 3.98832 36833 ft 427 kts 198°
2026-05-07 01:40 33.78415 3.97963 36862 ft 427 kts 198°
2026-05-07 01:41 33.72512 3.97100 36862 ft 427 kts 198°
2026-05-07 01:41 33.66611 3.96235 36860 ft 426 kts 198°
2026-05-07 01:42 33.60719 3.95372 36831 ft 426 kts 198°
2026-05-07 01:42 33.54881 3.94517 36856 ft 425 kts 198°
2026-05-07 01:43 33.49010 3.93658 36862 ft 425 kts 198°
2026-05-07 01:43 33.43129 3.92799 36860 ft 425 kts 198°
2026-05-07 01:44 33.37250 3.91941 36854 ft 425 kts 198°
2026-05-07 01:44 33.31372 3.91086 36857 ft 425 kts 198°
2026-05-07 01:45 33.25491 3.90231 36853 ft 426 kts 198°
2026-05-07 01:45 33.19615 3.89378 36846 ft 426 kts 198°
2026-05-07 01:46 33.13733 3.88524 36846 ft 426 kts 198°
2026-05-07 01:46 33.07888 3.87678 36827 ft 425 kts 197°
2026-05-07 01:47 33.02013 3.86829 36844 ft 425 kts 198°
2026-05-07 01:47 32.96142 3.85979 36848 ft 426 kts 198°
2026-05-07 01:48 32.90257 3.85126 36843 ft 426 kts 197°
2026-05-07 01:48 32.84363 3.84275 36833 ft 426 kts 197°
2026-05-07 01:49 32.78471 3.83425 36832 ft 426 kts 197°
2026-05-07 01:49 32.72584 3.82576 36831 ft 426 kts 197°
2026-05-07 01:50 32.66722 3.81731 36831 ft 427 kts 197°
2026-05-07 01:50 32.60805 3.80881 36845 ft 428 kts 197°
2026-05-07 01:51 32.54881 3.80032 36808 ft 429 kts 197°
2026-05-07 01:51 32.48959 3.79183 36823 ft 428 kts 197°
2026-05-07 01:52 32.43072 3.78347 36832 ft 430 kts 196°
2026-05-07 01:52 32.36991 3.78292 36834 ft 444 kts 187°
2026-05-07 01:53 32.30793 3.79296 36827 ft 451 kts 182°
2026-05-07 01:53 32.24589 3.80482 36814 ft 451 kts 182°
2026-05-07 01:54 32.18387 3.81652 36797 ft 451 kts 182°
2026-05-07 01:54 32.12185 3.82801 36804 ft 451 kts 182°
2026-05-07 01:55 32.05972 3.83942 36809 ft 452 kts 182°
2026-05-07 01:55 31.99788 3.85077 36785 ft 453 kts 182°
2026-05-07 01:56 31.93555 3.86219 36807 ft 454 kts 182°
2026-05-07 01:56 31.87296 3.87364 36801 ft 455 kts 182°
2026-05-07 01:57 31.81025 3.88510 36802 ft 456 kts 182°
2026-05-07 01:57 31.74746 3.89656 36798 ft 457 kts 182°
2026-05-07 01:58 31.68470 3.90801 36799 ft 457 kts 182°
2026-05-07 01:58 31.62207 3.91941 36797 ft 458 kts 182°
2026-05-07 01:59 31.55888 3.93090 36792 ft 459 kts 182°
2026-05-07 01:59 31.49566 3.94237 36788 ft 460 kts 182°
2026-05-07 02:00 31.43228 3.95387 36775 ft 461 kts 182°
2026-05-07 02:00 31.36915 3.96530 36792 ft 461 kts 182°
2026-05-07 02:01 31.30576 3.97677 36791 ft 461 kts 182°
2026-05-07 02:01 31.24230 3.98823 36788 ft 461 kts 182°
2026-05-07 02:02 31.17886 3.99967 36759 ft 461 kts 182°
2026-05-07 02:02 31.11547 4.01109 36777 ft 460 kts 182°
2026-05-07 02:03 31.05209 4.02248 36785 ft 460 kts 182°
2026-05-07 02:03 30.98912 4.03378 36795 ft 461 kts 182°
2026-05-07 02:04 30.92568 4.04516 36793 ft 461 kts 182°
2026-05-07 02:04 30.86234 4.05651 36792 ft 460 kts 182°
2026-05-07 02:05 30.79892 4.06785 36789 ft 461 kts 182°
2026-05-07 02:05 30.74623 4.07727 36798 ft 461 kts 182°
2026-05-07 02:06 30.67200 4.09051 36801 ft 461 kts 182°
2026-05-07 02:06 30.61923 4.09991 36801 ft 462 kts 182°
2026-05-07 02:07 30.54531 4.11307 36805 ft 462 kts 182°
2026-05-07 02:07 30.46029 4.12817 36806 ft 462 kts 182°
2026-05-07 02:08 30.39718 4.13936 36813 ft 462 kts 182°
2026-05-07 02:08 30.33356 4.15064 36813 ft 462 kts 182°
2026-05-07 02:09 30.27004 4.16188 36808 ft 462 kts 182°
2026-05-07 02:09 30.20647 4.17311 36820 ft 462 kts 182°
2026-05-07 02:10 30.14297 4.18432 36820 ft 462 kts 182°
2026-05-07 02:10 30.07980 4.19545 36797 ft 462 kts 182°
2026-05-07 02:11 30.01629 4.20663 36813 ft 462 kts 182°
2026-05-07 02:11 29.95265 4.21780 36832 ft 463 kts 182°
2026-05-07 02:12 29.88884 4.22899 36829 ft 464 kts 182°
2026-05-07 02:12 29.82486 4.24022 36831 ft 465 kts 182°
2026-05-07 02:13 29.76079 4.25145 36837 ft 466 kts 182°
2026-05-07 02:13 29.69714 4.26261 36830 ft 466 kts 182°
2026-05-07 02:14 29.63301 4.27401 36836 ft 466 kts 182°
2026-05-07 02:14 29.56886 4.28548 36836 ft 466 kts 182°
2026-05-07 02:15 29.50475 4.29692 36837 ft 466 kts 182°
2026-05-07 02:15 29.44076 4.30831 36827 ft 465 kts 182°
2026-05-07 02:16 29.37717 4.31961 36833 ft 464 kts 183°
2026-05-07 02:16 29.31328 4.33094 36836 ft 464 kts 182°
2026-05-07 02:17 29.24947 4.34225 36845 ft 464 kts 183°
2026-05-07 02:17 29.18552 4.35356 36834 ft 464 kts 182°
2026-05-07 02:18 29.12167 4.36484 36826 ft 463 kts 182°
2026-05-07 02:18 29.05784 4.37612 36828 ft 464 kts 182°
2026-05-07 02:19 28.99408 4.38735 36825 ft 464 kts 182°
2026-05-07 02:19 28.93035 4.39856 36833 ft 463 kts 183°
2026-05-07 02:20 28.86699 4.40970 36806 ft 463 kts 182°
2026-05-07 02:20 28.80332 4.42090 36827 ft 463 kts 182°
2026-05-07 02:21 28.73962 4.43207 36831 ft 463 kts 182°
2026-05-07 02:21 28.67591 4.44323 36833 ft 463 kts 182°
2026-05-07 02:22 28.61213 4.45439 36833 ft 463 kts 182°
2026-05-07 02:22 28.54846 4.46553 36831 ft 463 kts 182°
2026-05-07 02:23 28.48469 4.47668 36840 ft 463 kts 182°
2026-05-07 02:23 28.42093 4.48807 36842 ft 463 kts 182°
2026-05-07 02:24 28.35758 4.49947 36840 ft 464 kts 182°
2026-05-07 02:24 28.29383 4.51092 36811 ft 464 kts 182°
2026-05-07 02:25 28.23000 4.52236 36843 ft 463 kts 182°
2026-05-07 02:25 28.16624 4.53375 36850 ft 464 kts 182°
2026-05-07 02:26 28.10284 4.54506 36859 ft 464 kts 182°
2026-05-07 02:26 28.03899 4.55644 36857 ft 464 kts 182°
2026-05-07 02:27 27.97509 4.56782 36835 ft 464 kts 182°
2026-05-07 02:27 27.91125 4.57918 36858 ft 465 kts 182°
2026-05-07 02:28 27.84719 4.59054 36858 ft 466 kts 182°
2026-05-07 02:28 27.78300 4.60192 36865 ft 467 kts 182°
2026-05-07 02:29 27.71867 4.61332 36869 ft 468 kts 182°
2026-05-07 02:29 27.65432 4.62472 36873 ft 468 kts 182°
2026-05-07 02:30 27.59028 4.63604 36868 ft 468 kts 182°
2026-05-07 02:30 27.52594 4.64741 36869 ft 468 kts 182°
2026-05-07 02:31 27.46168 4.65874 36869 ft 468 kts 182°
2026-05-07 02:31 27.39733 4.67008 36865 ft 467 kts 182°
2026-05-07 02:32 27.33313 4.68138 36869 ft 466 kts 182°
2026-05-07 02:32 27.26905 4.69264 36872 ft 466 kts 182°
2026-05-07 02:33 27.20494 4.70389 36876 ft 466 kts 182°
2026-05-07 02:33 27.14086 4.71512 36878 ft 466 kts 182°
2026-05-07 02:34 27.07687 4.72632 36865 ft 465 kts 182°
2026-05-07 02:34 27.01287 4.73752 36879 ft 465 kts 182°
2026-05-07 02:35 26.94897 4.74868 36881 ft 465 kts 182°
2026-05-07 02:35 26.88547 4.75976 36888 ft 465 kts 182°
2026-05-07 02:36 26.82152 4.77090 36889 ft 465 kts 182°
2026-05-07 02:36 26.75762 4.78203 36880 ft 464 kts 182°
2026-05-07 02:37 26.69375 4.79315 36884 ft 464 kts 182°
2026-05-07 02:37 26.62983 4.80425 36890 ft 464 kts 182°
2026-05-07 02:38 26.56581 4.81534 36912 ft 465 kts 182°
2026-05-07 02:38 26.50215 4.82635 36889 ft 466 kts 182°
2026-05-07 02:39 26.43800 4.83747 36884 ft 466 kts 182°
2026-05-07 02:39 26.37398 4.84857 36913 ft 466 kts 182°
2026-05-07 02:40 26.30981 4.85965 36907 ft 466 kts 182°
2026-05-07 02:40 26.24559 4.87072 36902 ft 466 kts 182°
2026-05-07 02:41 26.18133 4.88179 36909 ft 467 kts 182°
2026-05-07 02:41 26.11736 4.89282 36919 ft 466 kts 182°
2026-05-07 02:42 26.05333 4.90379 36915 ft 471 kts 182°
2026-05-07 02:42 25.98829 4.91495 36921 ft 474 kts 182°
2026-05-07 02:43 25.92295 4.92618 36914 ft 474 kts 182°
2026-05-07 02:43 25.85778 4.93739 36878 ft 473 kts 181°
2026-05-07 02:44 25.79288 4.94852 36908 ft 471 kts 182°
2026-05-07 02:44 25.72828 4.95956 36906 ft 470 kts 182°
2026-05-07 02:45 25.66369 4.97058 36910 ft 469 kts 182°
2026-05-07 02:45 25.59905 4.98160 36914 ft 470 kts 182°
2026-05-07 02:46 25.53438 4.99261 36886 ft 470 kts 181°
2026-05-07 02:46 25.46964 5.00363 36900 ft 471 kts 181°
2026-05-07 02:47 25.40510 5.01461 36895 ft 472 kts 181°
2026-05-07 02:47 25.34004 5.02566 36894 ft 473 kts 181°
2026-05-07 02:48 25.27486 5.03672 36894 ft 474 kts 181°
2026-05-07 02:48 25.20949 5.04780 36879 ft 475 kts 181°
2026-05-07 02:49 25.14413 5.05888 36884 ft 475 kts 181°
2026-05-07 02:49 25.07873 5.06995 36891 ft 475 kts 181°
2026-05-07 02:50 25.01367 5.08094 36886 ft 475 kts 181°
2026-05-07 02:50 24.94823 5.09198 36883 ft 475 kts 181°
2026-05-07 02:51 24.88276 5.10303 36875 ft 476 kts 181°
2026-05-07 02:51 24.81725 5.11406 36883 ft 476 kts 181°
2026-05-07 02:52 24.75161 5.12509 36884 ft 478 kts 181°
2026-05-07 02:52 24.69697 5.13427 36886 ft 478 kts 181°
2026-05-07 02:53 24.63096 5.14536 36874 ft 479 kts 181°
2026-05-07 02:53 24.56500 5.15643 36877 ft 480 kts 181°
2026-05-07 02:54 24.49894 5.16750 36844 ft 479 kts 181°
2026-05-07 02:54 24.43312 5.17854 36878 ft 478 kts 181°
2026-05-07 02:55 24.36725 5.18954 36881 ft 479 kts 181°
2026-05-07 02:55 24.30128 5.20055 36880 ft 480 kts 181°
2026-05-07 02:56 24.23569 5.21150 36864 ft 480 kts 181°
2026-05-07 02:56 24.16965 5.22251 36867 ft 480 kts 181°
2026-05-07 02:57 24.10355 5.23351 36864 ft 480 kts 181°
2026-05-07 02:57 24.03749 5.24451 36860 ft 480 kts 181°
2026-05-07 02:58 23.97148 5.25547 36826 ft 480 kts 181°
2026-05-07 02:58 23.90548 5.26643 36854 ft 480 kts 181°
2026-05-07 02:59 23.83927 5.27740 36859 ft 481 kts 181°
2026-05-07 02:59 23.77312 5.28836 36863 ft 481 kts 181°
2026-05-07 03:00 23.70682 5.29933 36866 ft 482 kts 181°
2026-05-07 03:00 23.64048 5.31030 36848 ft 482 kts 181°
2026-05-07 03:01 23.57415 5.32125 36863 ft 483 kts 181°
2026-05-07 03:01 23.50803 5.33216 36869 ft 483 kts 181°
2026-05-07 03:02 23.44144 5.34313 36888 ft 485 kts 181°
2026-05-07 03:02 23.37465 5.35412 36899 ft 486 kts 181°
2026-05-07 03:03 23.30770 5.36516 36852 ft 487 kts 180°
2026-05-07 03:03 23.24062 5.37619 36882 ft 487 kts 180°
2026-05-07 03:04 23.17347 5.38716 36893 ft 489 kts 180°
2026-05-07 03:04 23.10604 5.39823 36927 ft 490 kts 180°
2026-05-07 03:05 23.03853 5.40929 36969 ft 490 kts 180°
2026-05-07 03:05 22.97101 5.42036 36995 ft 490 kts 180°
2026-05-07 03:06 22.90400 5.43132 37037 ft 490 kts 180°
2026-05-07 03:06 22.83662 5.44244 37052 ft 491 kts 178°
2026-05-07 03:07 22.76986 5.46228 37041 ft 506 kts 167°
2026-05-07 03:07 22.70448 5.49116 37025 ft 507 kts 166°
2026-05-07 03:08 22.63925 5.52035 36985 ft 507 kts 166°
2026-05-07 03:08 22.57393 5.54914 36923 ft 507 kts 166°
2026-05-07 03:09 22.50839 5.57770 36874 ft 507 kts 166°
2026-05-07 03:09 22.44288 5.60616 36829 ft 508 kts 166°
2026-05-07 03:10 22.37731 5.63463 36830 ft 508 kts 166°
2026-05-07 03:10 22.31218 5.66290 36813 ft 507 kts 166°
2026-05-07 03:11 22.24664 5.69133 36820 ft 507 kts 166°
2026-05-07 03:11 22.18103 5.71975 36809 ft 508 kts 166°
2026-05-07 03:12 22.11535 5.74817 36818 ft 508 kts 166°
2026-05-07 03:12 22.04970 5.77655 36809 ft 509 kts 166°
2026-05-07 03:13 21.98388 5.80498 36806 ft 509 kts 166°
2026-05-07 03:13 21.91845 5.83322 36797 ft 509 kts 166°
2026-05-07 03:14 21.85258 5.86162 36813 ft 510 kts 166°
2026-05-07 03:15 21.75365 5.90421 36796 ft 510 kts 166°
2026-05-07 03:15 21.68782 5.93252 36797 ft 509 kts 165°
2026-05-07 03:16 21.62193 5.96082 36798 ft 509 kts 165°
2026-05-07 03:16 21.55601 5.98911 36796 ft 509 kts 165°
2026-05-07 03:17 21.49024 6.01731 36801 ft 509 kts 165°
2026-05-07 03:17 21.42434 6.04553 36791 ft 509 kts 165°
2026-05-07 03:18 21.35888 6.07354 36791 ft 509 kts 165°
2026-05-07 03:18 21.29298 6.10171 36781 ft 510 kts 165°
2026-05-07 03:19 21.22703 6.12987 36791 ft 511 kts 165°
2026-05-07 03:19 21.16092 6.15808 36790 ft 511 kts 165°
2026-05-07 03:20 21.09469 6.18631 36786 ft 512 kts 165°
2026-05-07 03:20 21.02885 6.21435 36786 ft 512 kts 165°
2026-05-07 03:21 20.96252 6.24256 36780 ft 512 kts 165°
2026-05-07 03:21 20.89627 6.27073 36780 ft 512 kts 165°
2026-05-07 03:22 20.83004 6.29886 36782 ft 512 kts 165°
2026-05-07 03:22 20.76385 6.32694 36775 ft 512 kts 165°
2026-05-07 03:23 20.69762 6.35500 36774 ft 511 kts 165°
2026-05-07 03:23 20.63175 6.38289 36768 ft 511 kts 165°
2026-05-07 03:24 20.56560 6.41088 36771 ft 511 kts 165°
2026-05-07 03:24 20.49939 6.43886 36771 ft 512 kts 165°
2026-05-07 03:25 20.43314 6.46683 36759 ft 512 kts 164°
2026-05-07 03:25 20.36691 6.49477 36773 ft 512 kts 164°
2026-05-07 03:26 20.30058 6.52273 36767 ft 513 kts 164°
2026-05-07 03:26 20.23417 6.55070 36776 ft 514 kts 164°
2026-05-07 03:27 20.16769 6.57868 36771 ft 514 kts 164°
2026-05-07 03:27 20.10104 6.60682 36770 ft 515 kts 163°
2026-05-07 03:28 20.03497 6.63695 36769 ft 517 kts 162°
2026-05-07 03:28 19.96940 6.66776 36760 ft 517 kts 161°
2026-05-07 03:29 19.90353 6.69845 36774 ft 517 kts 162°
2026-05-07 03:29 19.83748 6.72891 36766 ft 517 kts 162°
2026-05-07 03:30 19.77134 6.75929 36771 ft 517 kts 162°
2026-05-07 03:30 19.70531 6.78962 36771 ft 517 kts 162°
2026-05-07 03:31 19.63920 6.81997 36767 ft 517 kts 161°
2026-05-07 03:31 19.57346 6.85013 36773 ft 517 kts 161°
2026-05-07 03:32 19.50742 6.88041 36771 ft 518 kts 161°
2026-05-07 03:32 19.44125 6.91072 36767 ft 518 kts 161°
2026-05-07 03:33 19.37498 6.94104 36779 ft 518 kts 161°
2026-05-07 03:33 19.30877 6.97131 36766 ft 518 kts 161°
2026-05-07 03:34 19.24280 7.00145 36790 ft 519 kts 161°
2026-05-07 03:34 19.17641 7.03175 36788 ft 519 kts 161°
2026-05-07 03:35 19.11007 7.06200 36789 ft 520 kts 161°
2026-05-07 03:35 19.04362 7.09227 36786 ft 519 kts 161°
2026-05-07 03:36 18.97717 7.12253 36765 ft 520 kts 161°
2026-05-07 03:36 18.91082 7.15271 36791 ft 519 kts 161°
2026-05-07 03:37 18.85565 7.17779 36792 ft 519 kts 161°
2026-05-07 03:37 18.78921 7.20798 36789 ft 519 kts 161°
2026-05-07 03:38 18.72273 7.23817 36787 ft 519 kts 161°
2026-05-07 03:38 18.65675 7.26811 36777 ft 519 kts 161°
2026-05-07 03:39 18.59045 7.29817 36787 ft 519 kts 161°
2026-05-07 03:39 18.52408 7.32823 36789 ft 519 kts 161°
2026-05-07 03:40 18.45775 7.35825 36794 ft 519 kts 161°
2026-05-07 03:40 18.39143 7.38824 36792 ft 519 kts 161°
2026-05-07 03:41 18.32494 7.41829 36799 ft 519 kts 161°
2026-05-07 03:41 18.25893 7.44808 36791 ft 519 kts 161°
2026-05-07 03:42 18.19259 7.47801 36798 ft 518 kts 161°
2026-05-07 03:42 18.12628 7.50790 36803 ft 518 kts 161°
2026-05-07 03:43 18.05998 7.53776 36795 ft 518 kts 161°
2026-05-07 03:43 17.99363 7.56761 36793 ft 518 kts 161°
2026-05-07 03:44 17.92727 7.59744 36797 ft 519 kts 161°
2026-05-07 03:44 17.86089 7.62726 36802 ft 519 kts 161°
2026-05-07 03:45 17.79446 7.65708 36801 ft 520 kts 161°
2026-05-07 03:45 17.72795 7.68691 36808 ft 520 kts 161°
2026-05-07 03:46 17.66185 7.71653 36807 ft 520 kts 161°
2026-05-07 03:46 17.59516 7.74640 36817 ft 521 kts 161°
2026-05-07 03:47 17.52849 7.77623 36809 ft 520 kts 160°
2026-05-07 03:47 17.46197 7.80597 36813 ft 520 kts 160°
2026-05-07 03:48 17.39545 7.83569 36817 ft 520 kts 160°
2026-05-07 03:48 17.32888 7.86540 36814 ft 520 kts 160°
2026-05-07 03:49 17.26238 7.89506 36822 ft 519 kts 160°
2026-05-07 03:49 17.19586 7.92471 36818 ft 519 kts 160°
2026-05-07 03:50 17.12983 7.95412 36821 ft 518 kts 160°
2026-05-07 03:50 17.06346 7.98366 36820 ft 519 kts 160°
2026-05-07 03:51 16.99656 8.01178 36815 ft 516 kts 166°
2026-05-07 03:51 16.92710 8.02848 36819 ft 509 kts 177°
2026-05-07 03:52 16.85662 8.03527 36814 ft 508 kts 179°
2026-05-07 03:52 16.78607 8.04145 36810 ft 509 kts 179°
2026-05-07 03:53 16.71552 8.04799 36820 ft 509 kts 179°
2026-05-07 03:53 16.64479 8.05479 36816 ft 510 kts 179°
2026-05-07 03:54 16.57408 8.06164 36815 ft 510 kts 179°
2026-05-07 03:54 16.50331 8.06847 36807 ft 510 kts 179°
2026-05-07 03:55 16.43263 8.07528 36814 ft 510 kts 179°
2026-05-07 03:55 16.36188 8.08208 36815 ft 510 kts 179°
2026-05-07 03:56 16.29162 8.08882 36814 ft 510 kts 179°
2026-05-07 03:56 16.22090 8.09561 36814 ft 510 kts 179°
2026-05-07 03:57 16.15022 8.10239 36809 ft 510 kts 178°
2026-05-07 03:57 16.07946 8.10918 36816 ft 510 kts 178°
2026-05-07 03:58 16.00878 8.11595 36813 ft 510 kts 178°
2026-05-07 03:58 15.93820 8.12270 36814 ft 510 kts 178°
2026-05-07 03:59 15.86752 8.12946 36812 ft 510 kts 178°
2026-05-07 03:59 15.79683 8.13622 36812 ft 509 kts 178°
2026-05-07 04:00 15.72672 8.14292 36812 ft 509 kts 178°
2026-05-07 04:00 15.65620 8.14965 36817 ft 509 kts 178°
2026-05-07 04:01 15.58555 8.15639 36818 ft 509 kts 178°
2026-05-07 04:01 15.51495 8.16311 36813 ft 509 kts 178°
2026-05-07 04:02 15.44438 8.16984 36806 ft 509 kts 178°
2026-05-07 04:02 15.37397 8.17654 36815 ft 509 kts 178°
2026-05-07 04:03 15.30339 8.18325 36809 ft 509 kts 178°
2026-05-07 04:03 15.23286 8.18996 36811 ft 508 kts 178°
2026-05-07 04:04 15.16238 8.19666 36814 ft 508 kts 178°
2026-05-07 04:04 15.09228 8.20331 36811 ft 508 kts 178°
2026-05-07 04:05 15.02180 8.21000 36809 ft 507 kts 178°
2026-05-07 04:05 14.95146 8.21668 36813 ft 507 kts 178°
2026-05-07 04:06 14.88117 8.22336 36814 ft 507 kts 178°
2026-05-07 04:06 14.81093 8.23002 36810 ft 507 kts 178°
2026-05-07 04:07 14.74103 8.23665 36818 ft 507 kts 178°
2026-05-07 04:07 14.67074 8.24331 36811 ft 507 kts 178°
2026-05-07 04:08 14.60044 8.24997 36818 ft 507 kts 178°
2026-05-07 04:08 14.53014 8.25662 36830 ft 508 kts 178°
2026-05-07 04:09 14.45969 8.26328 36822 ft 508 kts 178°
2026-05-07 04:09 14.38926 8.26994 36823 ft 508 kts 178°
2026-05-07 04:10 14.31874 8.27660 36832 ft 508 kts 178°
2026-05-07 04:10 14.24833 8.28325 36838 ft 508 kts 178°
2026-05-07 04:11 14.17832 8.28986 36843 ft 508 kts 178°
2026-05-07 04:11 14.10789 8.29650 36829 ft 508 kts 178°
2026-05-07 04:12 14.03747 8.30313 36841 ft 508 kts 177°
2026-05-07 04:12 13.96711 8.30976 36838 ft 508 kts 177°
2026-05-07 04:13 13.89668 8.31639 36829 ft 507 kts 177°
2026-05-07 04:13 13.82631 8.32301 36832 ft 507 kts 177°
2026-05-07 04:14 13.75610 8.32961 36842 ft 507 kts 177°
2026-05-07 04:14 13.68579 8.33623 36840 ft 507 kts 177°
2026-05-07 04:15 13.61558 8.34286 36836 ft 507 kts 177°
2026-05-07 04:15 13.54531 8.34949 36839 ft 506 kts 177°
2026-05-07 04:16 13.47557 8.35606 36841 ft 507 kts 177°
2026-05-07 04:16 13.40534 8.36268 36839 ft 507 kts 177°
2026-05-07 04:17 13.33498 8.36930 36837 ft 507 kts 177°
2026-05-07 04:17 13.26479 8.37591 36835 ft 506 kts 177°
2026-05-07 04:18 13.19452 8.38252 36843 ft 506 kts 177°
2026-05-07 04:18 13.12442 8.38852 36844 ft 504 kts 181°
2026-05-07 04:19 13.05517 8.38260 36852 ft 498 kts 193°
2026-05-07 04:19 12.98871 8.36395 36847 ft 494 kts 201°
2026-05-07 04:20 12.93428 8.34592 36845 ft 495 kts 201°
2026-05-07 04:20 12.86863 8.32429 36850 ft 495 kts 200°
2026-05-07 04:21 12.76993 8.29242 36852 ft 496 kts 200°
2026-05-07 04:21 12.70404 8.27133 36851 ft 496 kts 200°
2026-05-07 04:22 12.63808 8.25022 36851 ft 497 kts 200°
2026-05-07 04:22 12.57197 8.22905 36850 ft 497 kts 200°
2026-05-07 04:23 12.50630 8.20802 36857 ft 498 kts 200°
2026-05-07 04:23 12.44020 8.18687 36859 ft 498 kts 200°
2026-05-07 04:24 12.37408 8.16573 36860 ft 498 kts 200°
2026-05-07 04:24 12.30788 8.14457 36860 ft 498 kts 200°
2026-05-07 04:25 12.24167 8.12342 36863 ft 498 kts 200°
2026-05-07 04:25 12.17554 8.10231 36863 ft 498 kts 200°
2026-05-07 04:26 12.10947 8.08122 36867 ft 497 kts 200°
2026-05-07 04:26 12.04330 8.06012 36863 ft 497 kts 200°
2026-05-07 04:27 11.97734 8.03909 36871 ft 497 kts 200°
2026-05-07 04:27 11.91168 8.01817 36876 ft 496 kts 200°
2026-05-07 04:28 11.84533 7.99704 36873 ft 496 kts 200°
2026-05-07 04:28 11.77993 7.97622 36877 ft 496 kts 200°
2026-05-07 04:29 11.71409 7.95527 36882 ft 495 kts 200°
2026-05-07 04:29 11.64827 7.93435 36874 ft 494 kts 200°
2026-05-07 04:30 11.58263 7.91349 36884 ft 494 kts 200°
2026-05-07 04:30 11.51713 7.89268 36894 ft 492 kts 199°
2026-05-07 04:31 11.45213 7.87204 36889 ft 491 kts 199°
2026-05-07 04:31 11.38705 7.85139 36891 ft 489 kts 199°
2026-05-07 04:32 11.32214 7.83080 36899 ft 488 kts 199°
2026-05-07 04:32 11.25724 7.81022 36897 ft 488 kts 199°
2026-05-07 04:33 11.19244 7.78968 36893 ft 488 kts 199°
2026-05-07 04:33 11.12741 7.76908 36900 ft 489 kts 198°
2026-05-07 04:34 11.06221 7.74843 36906 ft 491 kts 198°
2026-05-07 04:34 10.99681 7.72774 36906 ft 492 kts 199°
2026-05-07 04:35 10.93121 7.70699 36906 ft 493 kts 198°
2026-05-07 04:35 10.86602 7.68638 36908 ft 494 kts 198°
2026-05-07 04:36 10.80024 7.66559 36904 ft 494 kts 199°
2026-05-07 04:36 10.73463 7.64487 36905 ft 494 kts 198°
2026-05-07 04:37 10.66892 7.62412 36903 ft 493 kts 198°
2026-05-07 04:37 10.60334 7.60342 36910 ft 493 kts 199°
2026-05-07 04:38 10.53786 7.58277 36912 ft 492 kts 198°
2026-05-07 04:38 10.47245 7.56214 36909 ft 492 kts 199°
2026-05-07 04:39 10.40706 7.54153 36911 ft 491 kts 199°
2026-05-07 04:39 10.34226 7.52112 36910 ft 490 kts 198°
2026-05-07 04:40 10.27711 7.50060 36917 ft 489 kts 199°
2026-05-07 04:40 10.21216 7.48015 36917 ft 488 kts 199°
2026-05-07 04:41 10.14716 7.45970 36921 ft 488 kts 199°
2026-05-07 04:41 10.08262 7.43940 36923 ft 488 kts 199°
2026-05-07 04:42 10.01778 7.41901 36919 ft 488 kts 199°
2026-05-07 04:42 9.95283 7.39860 36920 ft 488 kts 199°
2026-05-07 04:43 9.88799 7.37835 36924 ft 487 kts 196°
2026-05-07 04:43 9.85453 7.37311 36905 ft 489 kts 180°
2026-05-07 04:43 9.82090 7.37752 36933 ft 488 kts 169°
2026-05-07 04:44 9.75427 7.39249 36931 ft 491 kts 169°
2026-05-07 04:44 9.68712 7.40657 36930 ft 494 kts 169°
2026-05-07 04:45 9.62076 7.41981 36907 ft 472 kts 170°
2026-05-07 04:45 9.58941 7.42602 36897 ft 457 kts 170°
2026-05-07 04:45 9.55868 7.43212 36903 ft 444 kts 170°
2026-05-07 04:46 9.49846 7.44411 36912 ft 438 kts 169°
2026-05-07 04:46 9.46848 7.44902 36906 ft 436 kts 180°
2026-05-07 04:46 9.43851 7.44708 36952 ft 430 kts 188°
2026-05-07 04:47 9.37840 7.43949 36937 ft 440 kts 187°
2026-05-07 04:47 9.31743 7.43266 36924 ft 441 kts 186°
2026-05-07 04:48 9.25640 7.42630 36914 ft 439 kts 188°
2026-05-07 04:48 9.22705 7.41865 36908 ft 432 kts 206°
2026-05-07 04:48 9.20228 7.40308 36919 ft 420 kts 217°
2026-05-07 04:49 9.15525 7.36789 36909 ft 420 kts 217°
2026-05-07 04:49 9.10827 7.33296 36907 ft 417 kts 217°
2026-05-07 04:50 9.06158 7.29827 36909 ft 415 kts 217°
2026-05-07 04:50 9.01477 7.26350 36919 ft 418 kts 216°
2026-05-07 04:51 8.96768 7.22852 36917 ft 421 kts 216°
2026-05-07 04:51 8.92075 7.19366 36912 ft 422 kts 216°
2026-05-07 04:52 8.87349 7.15857 36900 ft 420 kts 216°
2026-05-07 04:52 8.82648 7.12367 36888 ft 417 kts 216°
2026-05-07 04:53 8.77980 7.08901 36890 ft 414 kts 216°
2026-05-07 04:53 8.73352 7.05465 36890 ft 413 kts 216°
2026-05-07 04:54 8.68726 7.02030 36901 ft 416 kts 216°
2026-05-07 04:54 8.64037 6.98549 36903 ft 419 kts 216°
2026-05-07 04:55 8.59328 6.95053 36892 ft 421 kts 216°
2026-05-07 04:55 8.54610 6.91551 36891 ft 421 kts 215°
2026-05-07 04:56 8.49892 6.88050 36889 ft 420 kts 216°
2026-05-07 04:56 8.45196 6.84566 36886 ft 418 kts 216°
2026-05-07 04:57 8.40519 6.81096 36878 ft 416 kts 216°
2026-05-07 04:57 8.35854 6.77636 36887 ft 417 kts 216°
2026-05-07 04:58 8.31154 6.74150 36893 ft 420 kts 216°
2026-05-07 04:58 8.26451 6.70662 36888 ft 423 kts 215°
2026-05-07 04:59 8.21697 6.67137 36886 ft 424 kts 215°
2026-05-07 04:59 8.16947 6.63617 36885 ft 423 kts 216°
2026-05-07 05:00 8.12205 6.60102 36881 ft 422 kts 215°
2026-05-07 05:00 8.07486 6.56604 36879 ft 419 kts 215°
2026-05-07 05:01 8.02822 6.53147 36886 ft 417 kts 216°
2026-05-07 05:01 7.98159 6.49691 36888 ft 416 kts 215°
2026-05-07 05:02 7.93474 6.46220 36903 ft 419 kts 216°
2026-05-07 05:02 7.88744 6.42717 36908 ft 424 kts 214°
2026-05-07 05:03 7.83958 6.39174 36905 ft 427 kts 215°
2026-05-07 05:03 7.79162 6.35625 36908 ft 428 kts 214°
2026-05-07 05:04 7.74361 6.32073 36899 ft 427 kts 215°
2026-05-07 05:04 7.69620 6.28564 36894 ft 424 kts 215°
2026-05-07 05:05 7.64882 6.25058 36901 ft 421 kts 216°
2026-05-07 05:05 7.60173 6.21572 36907 ft 419 kts 215°
2026-05-07 05:06 7.56258 6.18675 36920 ft 421 kts 215°
2026-05-07 05:06 7.50718 6.14576 36921 ft 424 kts 215°
2026-05-07 05:07 7.46751 6.11643 36922 ft 426 kts 215°
2026-05-07 05:07 7.41983 6.08118 36919 ft 427 kts 215°
2026-05-07 05:08 7.37195 6.04580 36915 ft 426 kts 215°
2026-05-07 05:08 7.32434 6.01061 36912 ft 424 kts 215°
2026-05-07 05:09 7.27689 5.97554 36906 ft 421 kts 215°
2026-05-07 05:09 7.22976 5.94070 36907 ft 419 kts 215°
2026-05-07 05:10 7.18275 5.90595 36920 ft 421 kts 215°
2026-05-07 05:10 7.13567 5.87117 36927 ft 424 kts 215°
2026-05-07 05:11 7.08800 5.83596 36919 ft 426 kts 215°
2026-05-07 05:11 7.04010 5.80060 36916 ft 427 kts 215°
2026-05-07 05:12 6.99218 5.76522 36913 ft 426 kts 215°
2026-05-07 05:12 6.94450 5.73001 36905 ft 423 kts 215°
2026-05-07 05:13 6.89716 5.69506 36886 ft 421 kts 216°
2026-05-07 05:13 6.84986 5.66013 36916 ft 423 kts 216°
2026-05-07 05:14 6.80217 5.62493 36915 ft 426 kts 215°
2026-05-07 05:14 6.75461 5.58983 36910 ft 427 kts 215°
2026-05-07 05:15 6.70657 5.55439 36908 ft 427 kts 215°
2026-05-07 05:15 6.65877 5.51912 36891 ft 425 kts 215°
2026-05-07 05:16 6.61116 5.48399 36890 ft 422 kts 215°
2026-05-07 05:16 6.56394 5.44914 36894 ft 419 kts 215°
2026-05-07 05:17 6.51693 5.41444 36902 ft 419 kts 215°
2026-05-07 05:17 6.46996 5.37978 36901 ft 423 kts 215°
2026-05-07 05:18 6.42237 5.34468 36904 ft 425 kts 215°
2026-05-07 05:18 6.37448 5.30937 36895 ft 427 kts 215°
2026-05-07 05:19 6.32654 5.27404 36894 ft 427 kts 215°
2026-05-07 05:19 6.27871 5.23878 36891 ft 426 kts 215°
2026-05-07 05:20 6.23108 5.20367 36889 ft 423 kts 215°
2026-05-07 05:20 6.18374 5.16878 36881 ft 421 kts 215°
2026-05-07 05:21 6.11335 5.11688 36891 ft 420 kts 215°
2026-05-07 05:22 6.06600 5.08198 36898 ft 423 kts 215°
2026-05-07 05:22 6.01832 5.04685 36899 ft 426 kts 215°
2026-05-07 05:23 5.97042 5.01157 36899 ft 427 kts 215°
2026-05-07 05:23 5.92238 4.97619 36894 ft 427 kts 215°
2026-05-07 05:24 5.87450 4.94093 36884 ft 426 kts 215°
2026-05-07 05:24 5.82686 4.90584 36878 ft 423 kts 215°
2026-05-07 05:25 5.77965 4.87105 36883 ft 420 kts 215°
2026-05-07 05:25 5.73288 4.83658 36889 ft 420 kts 215°
2026-05-07 05:26 5.68550 4.80169 36900 ft 423 kts 215°
2026-05-07 05:26 5.63776 4.76654 36903 ft 427 kts 215°
2026-05-07 05:27 5.58974 4.73120 36897 ft 429 kts 215°
2026-05-07 05:27 5.54158 4.69577 36895 ft 429 kts 215°
2026-05-07 05:28 5.49346 4.66038 36889 ft 427 kts 214°
2026-05-07 05:28 5.44603 4.62547 36882 ft 424 kts 215°
2026-05-07 05:29 5.39863 4.59058 36883 ft 421 kts 215°
2026-05-07 05:29 5.35145 4.55585 36894 ft 421 kts 215°
2026-05-07 05:30 5.30401 4.52094 36904 ft 425 kts 215°
2026-05-07 05:30 5.25609 4.48570 36906 ft 429 kts 215°
2026-05-07 05:31 5.20785 4.45023 36904 ft 431 kts 215°
2026-05-07 05:31 5.15945 4.41465 36892 ft 431 kts 215°
2026-05-07 05:32 5.11141 4.37934 36887 ft 429 kts 215°
2026-05-07 05:32 5.06346 4.34408 36889 ft 425 kts 215°
2026-05-07 05:33 5.01596 4.30915 36888 ft 421 kts 215°
2026-05-07 05:33 4.96892 4.27454 36896 ft 424 kts 215°
2026-05-07 05:34 4.92114 4.23941 36904 ft 427 kts 215°
2026-05-07 05:34 4.87302 4.20403 36905 ft 430 kts 215°
2026-05-07 05:35 4.82459 4.16845 36895 ft 432 kts 215°
2026-05-07 05:35 4.77609 4.13281 36895 ft 431 kts 215°
2026-05-07 05:36 4.72769 4.09725 36895 ft 430 kts 215°
2026-05-07 05:36 4.67963 4.06193 36889 ft 427 kts 215°
2026-05-07 05:37 4.63185 4.02681 36886 ft 424 kts 215°
2026-05-07 05:37 4.58433 3.99188 36891 ft 424 kts 215°
2026-05-07 05:38 4.53678 3.95693 36908 ft 428 kts 215°
2026-05-07 05:38 4.48848 3.92145 36908 ft 432 kts 215°
2026-05-07 05:39 4.43973 3.88566 36906 ft 435 kts 215°
2026-05-07 05:39 4.39095 3.84984 36902 ft 434 kts 215°
2026-05-07 05:40 4.34223 3.81408 36887 ft 432 kts 215°
2026-05-07 05:40 4.29401 3.77866 36884 ft 428 kts 215°
2026-05-07 05:41 4.24619 3.74353 36884 ft 424 kts 215°
2026-05-07 05:41 4.19900 3.70885 36895 ft 424 kts 215°
2026-05-07 05:42 4.15121 3.67374 36901 ft 428 kts 215°
2026-05-07 05:42 4.10299 3.63832 36906 ft 430 kts 215°
2026-05-07 05:43 4.05465 3.60283 36904 ft 431 kts 215°
2026-05-07 05:43 4.00625 3.56730 36898 ft 431 kts 215°
2026-05-07 05:44 3.95801 3.53187 36895 ft 428 kts 215°
2026-05-07 05:44 3.91007 3.49665 36887 ft 426 kts 215°
2026-05-07 05:45 3.86277 3.46191 36890 ft 423 kts 215°
2026-05-07 05:45 3.81530 3.42702 36900 ft 424 kts 215°
2026-05-07 05:46 3.76750 3.39191 36904 ft 428 kts 215°
2026-05-07 05:46 3.71925 3.35648 36907 ft 431 kts 215°
2026-05-07 05:47 3.67068 3.32084 36904 ft 433 kts 215°
2026-05-07 05:47 3.62209 3.28517 36898 ft 432 kts 215°
2026-05-07 05:48 3.57400 3.24987 36893 ft 430 kts 215°
2026-05-07 05:48 3.52596 3.21460 36893 ft 426 kts 215°
2026-05-07 05:49 3.47829 3.17958 36892 ft 423 kts 215°
2026-05-07 05:49 3.43067 3.14461 36908 ft 426 kts 215°
2026-05-07 05:50 3.38268 3.10937 36903 ft 429 kts 215°
2026-05-07 05:50 3.33463 3.07410 36905 ft 431 kts 215°
2026-05-07 05:51 3.28615 3.03853 36910 ft 432 kts 215°
2026-05-07 05:51 3.23780 3.00305 36897 ft 430 kts 215°
2026-05-07 05:52 3.18973 2.96776 36888 ft 427 kts 215°
2026-05-07 05:52 3.14203 2.93273 36891 ft 423 kts 215°
2026-05-07 05:53 3.09468 2.89794 36897 ft 422 kts 215°
2026-05-07 05:53 3.04706 2.86297 36911 ft 426 kts 215°
2026-05-07 05:54 2.99907 2.82774 36913 ft 429 kts 215°
2026-05-07 05:54 2.95112 2.79255 36913 ft 431 kts 215°
2026-05-07 05:55 2.90272 2.75703 36904 ft 431 kts 215°
2026-05-07 05:55 2.86229 2.72735 36898 ft 430 kts 215°
2026-05-07 05:56 2.81417 2.69202 36897 ft 427 kts 215°
2026-05-07 05:56 2.76674 2.65720 36893 ft 424 kts 215°
2026-05-07 05:57 2.71928 2.62234 36893 ft 421 kts 215°
2026-05-07 05:57 2.67184 2.58749 36910 ft 424 kts 215°
2026-05-07 05:58 2.62408 2.55241 36915 ft 428 kts 215°
2026-05-07 05:58 2.57611 2.51720 36914 ft 431 kts 215°
2026-05-07 05:59 2.52774 2.48170 36907 ft 432 kts 215°
2026-05-07 05:59 2.47930 2.44614 36900 ft 430 kts 215°
2026-05-07 06:00 2.43124 2.41085 36889 ft 427 kts 215°
2026-05-07 06:00 2.38346 2.37575 36891 ft 424 kts 215°
2026-05-07 06:01 2.33609 2.34093 36896 ft 423 kts 215°
2026-05-07 06:01 2.28848 2.30595 36910 ft 426 kts 215°
2026-05-07 06:02 2.24077 2.27091 36910 ft 428 kts 215°
2026-05-07 06:02 2.19260 2.23553 36900 ft 429 kts 215°
2026-05-07 06:03 2.14447 2.20017 36899 ft 428 kts 215°
2026-05-07 06:03 2.09658 2.16499 36895 ft 426 kts 215°
2026-05-07 06:04 2.04927 2.13022 36889 ft 423 kts 215°
2026-05-07 06:04 2.00205 2.09550 36889 ft 420 kts 215°
2026-05-07 06:05 1.95477 2.06074 36905 ft 423 kts 215°
2026-05-07 06:05 1.90707 2.02568 36906 ft 427 kts 215°
2026-05-07 06:06 1.85910 1.99043 36908 ft 429 kts 215°
2026-05-07 06:06 1.81100 1.95509 36901 ft 429 kts 215°
2026-05-07 06:07 1.76323 1.91999 36894 ft 427 kts 215°
2026-05-07 06:07 1.71550 1.88491 36890 ft 425 kts 215°
2026-05-07 06:08 1.66801 1.85000 36893 ft 422 kts 215°
2026-05-07 06:08 1.62074 1.81524 36895 ft 421 kts 215°
2026-05-07 06:09 1.57327 1.78034 36911 ft 425 kts 215°
2026-05-07 06:09 1.52542 1.74517 36913 ft 428 kts 216°
2026-05-07 06:10 1.47730 1.70982 36906 ft 430 kts 216°
2026-05-07 06:10 1.42907 1.67439 36901 ft 430 kts 216°
2026-05-07 06:11 1.38115 1.63917 36902 ft 429 kts 216°
2026-05-07 06:11 1.33322 1.60395 36895 ft 427 kts 216°
2026-05-07 06:12 1.28556 1.56891 36891 ft 424 kts 216°
2026-05-07 06:12 1.23814 1.53405 36894 ft 422 kts 216°
2026-05-07 06:13 1.19062 1.49912 36908 ft 426 kts 216°
2026-05-07 06:13 1.14297 1.46409 36912 ft 429 kts 216°
2026-05-07 06:14 1.09473 1.42862 36910 ft 431 kts 216°
2026-05-07 06:14 1.04642 1.39311 36904 ft 431 kts 216°
2026-05-07 06:15 0.99813 1.35760 36896 ft 429 kts 216°
2026-05-07 06:15 0.95017 1.32233 36891 ft 427 kts 216°
2026-05-07 06:16 0.90242 1.28722 36894 ft 424 kts 216°
2026-05-07 06:16 0.85506 1.25238 36897 ft 423 kts 216°
2026-05-07 06:17 0.80779 1.21761 36916 ft 426 kts 216°
2026-05-07 06:17 0.75979 1.18229 36916 ft 429 kts 216°
2026-05-07 06:18 0.71157 1.14682 36909 ft 431 kts 216°
2026-05-07 06:18 0.66330 1.11129 36906 ft 431 kts 216°
2026-05-07 06:19 0.61509 1.07581 36905 ft 429 kts 216°
2026-05-07 06:19 0.56720 1.04056 36897 ft 426 kts 216°
2026-05-07 06:20 0.51955 1.00548 36898 ft 424 kts 216°
2026-05-07 06:20 0.47218 0.97060 36903 ft 423 kts 216°
2026-05-07 06:21 0.42464 0.93560 36918 ft 426 kts 216°
2026-05-07 06:21 0.37705 0.90055 36920 ft 429 kts 216°
2026-05-07 06:22 0.32883 0.86505 36913 ft 431 kts 216°
2026-05-07 06:22 0.25644 0.81173 36908 ft 429 kts 216°
2026-05-07 06:23 0.20850 0.77642 36901 ft 427 kts 216°
2026-05-07 06:23 0.16077 0.74126 36900 ft 424 kts 216°
2026-05-07 06:24 0.11334 0.70632 36903 ft 422 kts 216°
2026-05-07 06:24 0.06628 0.67164 36917 ft 424 kts 216°
2026-05-07 06:25 0.01850 0.63644 36920 ft 428 kts 216°
2026-05-07 06:25 -0.02956 0.60103 36921 ft 430 kts 216°
2026-05-07 06:26 -0.07780 0.56549 36909 ft 430 kts 216°
2026-05-07 06:26 -0.12560 0.53026 36906 ft 427 kts 216°
2026-05-07 06:27 -0.17329 0.49512 36902 ft 424 kts 216°
2026-05-07 06:27 -0.22063 0.46022 36902 ft 421 kts 216°
2026-05-07 06:28 -0.26787 0.42540 36916 ft 423 kts 216°
2026-05-07 06:28 -0.31542 0.39035 36923 ft 426 kts 216°
2026-05-07 06:29 -0.36324 0.35510 36922 ft 428 kts 216°
2026-05-07 06:29 -0.41121 0.31973 36920 ft 429 kts 216°
2026-05-07 06:30 -0.45900 0.28449 36908 ft 427 kts 216°
2026-05-07 06:30 -0.50668 0.24933 36904 ft 425 kts 216°
2026-05-07 06:31 -0.55404 0.21439 36909 ft 422 kts 216°
2026-05-07 06:31 -0.60122 0.17959 36910 ft 421 kts 216°
2026-05-07 06:32 -0.64849 0.14471 36925 ft 424 kts 216°
2026-05-07 06:32 -0.69614 0.10956 36925 ft 427 kts 216°
2026-05-07 06:33 -0.74409 0.07419 36921 ft 429 kts 216°
2026-05-07 06:33 -0.79182 0.03897 36911 ft 426 kts 216°
2026-05-07 06:34 -0.83907 0.00409 36912 ft 418 kts 216°
2026-05-07 06:34 -0.88598 -0.03053 36927 ft 420 kts 216°
2026-05-07 06:35 -0.93337 -0.06550 36926 ft 427 kts 216°
2026-05-07 06:35 -0.98132 -0.10088 36926 ft 430 kts 216°
2026-05-07 06:36 -1.02905 -0.13611 36908 ft 422 kts 216°
2026-05-07 06:36 -1.07601 -0.17078 36912 ft 418 kts 216°
2026-05-07 06:37 -1.12307 -0.20553 36935 ft 423 kts 216°
2026-05-07 06:37 -1.17050 -0.24055 36933 ft 428 kts 216°
2026-05-07 06:38 -1.21843 -0.27593 36914 ft 426 kts 216°
2026-05-07 06:38 -1.26561 -0.31077 36907 ft 418 kts 216°
2026-05-07 06:39 -1.30455 -0.33953 36924 ft 419 kts 216°
2026-05-07 06:39 -1.35179 -0.37442 36931 ft 425 kts 216°
2026-05-07 06:40 -1.39963 -0.40976 36935 ft 429 kts 216°
2026-05-07 06:40 -1.44737 -0.44501 36910 ft 423 kts 216°
2026-05-07 06:41 -1.49431 -0.47969 36911 ft 418 kts 216°
2026-05-07 06:41 -1.54124 -0.51437 36937 ft 422 kts 216°
2026-05-07 06:42 -1.58869 -0.54943 36930 ft 426 kts 215°
2026-05-07 06:42 -1.63618 -0.58452 36915 ft 421 kts 216°
2026-05-07 06:43 -1.68309 -0.61919 36928 ft 417 kts 216°
2026-05-07 06:43 -1.72999 -0.65386 36934 ft 420 kts 215°
2026-05-07 06:44 -1.77712 -0.68869 36925 ft 422 kts 216°
2026-05-07 06:44 -1.82442 -0.72366 36930 ft 422 kts 216°
2026-05-07 06:45 -1.87169 -0.75860 36924 ft 422 kts 216°
2026-05-07 06:45 -1.91879 -0.79343 36928 ft 421 kts 215°
2026-05-07 06:46 -1.96581 -0.82820 36929 ft 418 kts 216°
2026-05-07 06:46 -2.01246 -0.86271 36927 ft 419 kts 216°
2026-05-07 06:47 -2.05945 -0.89747 36924 ft 420 kts 216°
2026-05-07 06:47 -2.10645 -0.93224 36931 ft 419 kts 216°
2026-05-07 06:48 -2.15336 -0.96695 36931 ft 419 kts 216°
2026-05-07 06:48 -2.20047 -1.00179 36935 ft 422 kts 215°
2026-05-07 06:49 -2.24790 -1.03688 36931 ft 424 kts 216°
2026-05-07 06:49 -2.29532 -1.07197 36920 ft 422 kts 216°
2026-05-07 06:50 -2.34173 -1.10632 36917 ft 414 kts 215°
2026-05-07 06:50 -2.38814 -1.14069 36944 ft 417 kts 216°
2026-05-07 06:51 -2.43355 -1.17442 36901 ft 391 kts 216°
2026-05-07 06:51 -2.45484 -1.19030 36850 ft 375 kts 216°
2026-05-07 06:51 -2.47588 -1.20590 35989 ft 382 kts 214°
2026-05-07 06:52 -2.49880 -1.22197 34010 ft 425 kts 211°
2026-05-07 06:52 -2.52491 -1.23831 32436 ft 452 kts 208°
2026-05-07 06:52 -2.55231 -1.25268 32511 ft 430 kts 202°
2026-05-07 06:52 -2.57822 -1.26334 33423 ft 386 kts 196°
2026-05-07 06:53 -2.60296 -1.27049 33820 ft 360 kts 189°
2026-05-07 06:53 -2.62783 -1.27437 32921 ft 368 kts 182°
2026-05-07 06:53 -2.65446 -1.27471 31259 ft 399 kts 174°
2026-05-07 06:53 -2.68283 -1.27083 30022 ft 420 kts 165°
2026-05-07 06:54 -2.71047 -1.26260 29859 ft 404 kts 156°
2026-05-07 06:54 -2.73472 -1.25102 30391 ft 368 kts 146°
2026-05-07 06:54 -2.75492 -1.23688 30570 ft 346 kts 137°
2026-05-07 06:54 -2.77192 -1.21987 29871 ft 350 kts 127°
2026-05-07 06:55 -2.78620 -1.19921 28435 ft 374 kts 117°
2026-05-07 06:55 -2.79707 -1.17488 27372 ft 389 kts 108°
2026-05-07 06:55 -2.80325 -1.14892 27181 ft 376 kts 97°
2026-05-07 06:55 -2.80431 -1.12375 27537 ft 349 kts 86°
2026-05-07 06:56 -2.80063 -1.10044 27595 ft 333 kts 75°
2026-05-07 06:56 -2.79269 -1.07855 26902 ft 341 kts 65°
2026-05-07 06:56 -2.78025 -1.05751 25825 ft 362 kts 54°
2026-05-07 06:56 -2.76344 -1.03811 25034 ft 375 kts 44°
2026-05-07 06:57 -2.74321 -1.02197 24819 ft 367 kts 33°
2026-05-07 06:57 -2.72122 -1.01035 24899 ft 349 kts 23°
2026-05-07 06:57 -2.69832 -1.00348 24756 ft 342 kts 11°
2026-05-07 06:57 -2.67441 -1.00131 24170 ft 350 kts
2026-05-07 06:58 -2.64981 -1.00410 23389 ft 364 kts 348°
2026-05-07 06:58 -2.62556 -1.01213 22817 ft 367 kts 336°
2026-05-07 06:58 -2.60412 -1.02472 22711 ft 356 kts 324°
2026-05-07 06:58 -2.58623 -1.04113 22683 ft 343 kts 312°
2026-05-07 06:59 -2.57246 -1.06041 22348 ft 341 kts 300°
2026-05-07 06:59 -2.56256 -1.08213 21731 ft 347 kts 290°
2026-05-07 06:59 -2.55656 -1.10571 21148 ft 352 kts 279°
2026-05-07 06:59 -2.55485 -1.13002 20841 ft 348 kts 269°
2026-05-07 07:00 -2.55747 -1.15375 20711 ft 338 kts 258°
2026-05-07 07:00 -2.56414 -1.17596 20505 ft 330 kts 248°
2026-05-07 07:00 -2.57458 -1.19634 20101 ft 331 kts 237°
2026-05-07 07:00 -2.58868 -1.21474 19522 ft 337 kts 227°
2026-05-07 07:01 -2.60621 -1.23068 19023 ft 341 kts 217°
2026-05-07 07:01 -2.62622 -1.24320 18767 ft 336 kts 206°
2026-05-07 07:01 -2.64755 -1.25170 18634 ft 326 kts 195°
2026-05-07 07:01 -2.66955 -1.25615 18362 ft 322 kts 185°
2026-05-07 07:02 -2.69175 -1.25664 17795 ft 328 kts 175°
2026-05-07 07:02 -2.71463 -1.25314 17121 ft 335 kts 164°
2026-05-07 07:02 -2.73652 -1.24559 16825 ft 328 kts 153°
2026-05-07 07:02 -2.75612 -1.23492 16756 ft 314 kts 145°
2026-05-07 07:03 -2.77379 -1.22261 16540 ft 306 kts 141°
2026-05-07 07:03 -2.78997 -1.20901 16206 ft 303 kts 133°
2026-05-07 07:03 -2.80449 -1.19360 15726 ft 305 kts 126°
2026-05-07 07:03 -2.81694 -1.17645 15308 ft 303 kts 118°
2026-05-07 07:04 -2.82674 -1.15808 15082 ft 295 kts 111°
2026-05-07 07:04 -2.83361 -1.13900 14844 ft 288 kts 103°
2026-05-07 07:04 -2.83735 -1.11948 14520 ft 285 kts 94°
2026-05-07 07:04 -2.83796 -1.10003 14166 ft 283 kts 85°
2026-05-07 07:05 -2.83540 -1.08064 13845 ft 280 kts 76°
2026-05-07 07:05 -2.82961 -1.06196 13541 ft 276 kts 66°
2026-05-07 07:05 -2.82101 -1.04514 13202 ft 274 kts 57°
2026-05-07 07:05 -2.80956 -1.02998 12873 ft 272 kts 48°
2026-05-07 07:06 -2.79569 -1.01712 12503 ft 273 kts 39°
2026-05-07 07:06 -2.77970 -1.00687 12135 ft 274 kts 29°
2026-05-07 07:06 -2.76205 -0.99962 11819 ft 273 kts 19°
2026-05-07 07:06 -2.74348 -0.99566 11498 ft 274 kts
2026-05-07 07:07 -2.72441 -0.99513 11161 ft 276 kts 359°
2026-05-07 07:07 -2.70537 -0.99821 10820 ft 278 kts 348°
2026-05-07 07:07 -2.68709 -1.00477 10504 ft 280 kts 338°
2026-05-07 07:07 -2.67041 -1.01442 10219 ft 281 kts 328°
2026-05-07 07:08 -2.65542 -1.02701 9902 ft 283 kts 317°
2026-05-07 07:08 -2.64266 -1.04219 9512 ft 287 kts 308°
2026-05-07 07:08 -2.63254 -1.05942 9174 ft 288 kts 297°
2026-05-07 07:08 -2.62572 -1.07819 8884 ft 287 kts 286°
2026-05-07 07:09 -2.62253 -1.09788 8546 ft 287 kts 275°
2026-05-07 07:09 -2.62293 -1.11779 8243 ft 286 kts 263°
2026-05-07 07:09 -2.62683 -1.13709 8021 ft 281 kts 253°
2026-05-07 07:09 -2.63398 -1.15521 7688 ft 281 kts 242°
2026-05-07 07:10 -2.64410 -1.17191 7311 ft 282 kts 233°
2026-05-07 07:10 -2.65673 -1.18674 7065 ft 277 kts 223°
2026-05-07 07:10 -2.67099 -1.19885 6920 ft 268 kts 213°
2026-05-07 07:10 -2.68684 -1.20836 6699 ft 264 kts 204°
2026-05-07 07:11 -2.70392 -1.21501 6337 ft 264 kts 194°
2026-05-07 07:11 -2.72195 -1.21865 5960 ft 264 kts 184°
2026-05-07 07:11 -2.74009 -1.21914 5751 ft 257 kts 174°
2026-05-07 07:11 -2.75746 -1.21672 5635 ft 247 kts 165°
2026-05-07 07:12 -2.77373 -1.21171 5357 ft 244 kts 156°
2026-05-07 07:12 -2.78901 -1.20423 4982 ft 246 kts 148°
2026-05-07 07:12 -2.80280 -1.19460 4698 ft 243 kts 139°
2026-05-07 07:12 -2.81458 -1.18271 4468 ft 238 kts 129°
2026-05-07 07:13 -2.82363 -1.16904 4201 ft 236 kts 118°
2026-05-07 07:13 -2.82998 -1.15371 3758 ft 242 kts 108°
2026-05-07 07:13 -2.83350 -1.13710 3400 ft 246 kts 98°
2026-05-07 07:13 -2.83402 -1.12006 3157 ft 244 kts 88°
2026-05-07 07:14 -2.83161 -1.10349 3044 ft 237 kts 81°
2026-05-07 07:14 -2.82655 -1.08787 2793 ft 238 kts 71°
2026-05-07 07:14 -2.81877 -1.07285 2357 ft 247 kts 62°
2026-05-07 07:14 -2.80833 -1.05897 1989 ft 252 kts 52°
2026-05-07 07:15 -2.79554 -1.04708 1776 ft 250 kts 41°
2026-05-07 07:15 -2.78112 -1.03777 1585 ft 245 kts 31°
2026-05-07 07:15 -2.76519 -1.03105 1180 ft 253 kts 21°
2026-05-07 07:15 -2.74774 -1.02697 729 ft 261 kts 12°
2026-05-07 07:16 -2.72977 -1.02591 528 ft 260 kts
2026-05-07 07:16 -2.71218 -1.02774 428 ft 250 kts 352°
2026-05-07 07:16 -2.69527 -1.03236 63 ft 256 kts 342°
2026-05-07 07:16 -2.68275 -1.03719 654 ft 346 kts 341°
2026-05-07 07:17 -2.66027 -1.04596 457 ft 349 kts 340°
2026-05-07 07:17 -2.63802 -1.05473 157 ft 350 kts 340°
2026-05-07 07:17 -2.61537 -1.06353 51 ft 344 kts 340°
2026-05-07 07:17 -2.59348 -1.07187 47 ft 330 kts 340°
2026-05-07 07:18 -2.58135 -1.07667 657 ft 322 kts 340°
2026-05-07 07:18 -2.56043 -1.08505 917 ft 332 kts 340°
2026-05-07 07:18 -2.53810 -1.09359 1209 ft 351 kts 340°
2026-05-07 07:18 -2.51506 -1.10233 1461 ft 355 kts 341°
2026-05-07 07:19 -2.49232 -1.11104 1681 ft 354 kts 341°
2026-05-07 07:19 -2.46908 -1.12000 1926 ft 360 kts 341°
2026-05-07 07:19 -2.44560 -1.12899 2194 ft 362 kts 340°
2026-05-07 07:19 -2.42209 -1.13783 2427 ft 360 kts 341°
2026-05-07 07:20 -2.39879 -1.14661 2663 ft 357 kts 340°
2026-05-07 07:20 -2.37546 -1.15536 2913 ft 358 kts 340°
2026-05-07 07:20 -2.35207 -1.16414 3157 ft 360 kts 340°
2026-05-07 07:20 -2.32849 -1.17287 3399 ft 362 kts 341°
2026-05-07 07:21 -2.30480 -1.18160 3617 ft 365 kts 341°
2026-05-07 07:21 -2.28082 -1.19041 3854 ft 367 kts 340°
2026-05-07 07:21 -2.25686 -1.19921 4112 ft 367 kts 340°
2026-05-07 07:21 -2.23290 -1.20797 4355 ft 364 kts 340°
2026-05-07 07:22 -2.20902 -1.21665 4604 ft 366 kts 340°
2026-05-07 07:22 -2.18534 -1.22525 4839 ft 366 kts 341°
2026-05-07 07:22 -2.16139 -1.23394 5084 ft 367 kts 341°
2026-05-07 07:22 -2.13733 -1.24269 5325 ft 367 kts 341°
2026-05-07 07:23 -2.11327 -1.25147 5566 ft 368 kts 341°
2026-05-07 07:23 -2.08919 -1.26030 5805 ft 368 kts 341°
2026-05-07 07:23 -2.06510 -1.26918 6054 ft 369 kts 341°
2026-05-07 07:23 -2.04104 -1.27806 6301 ft 369 kts 340°
2026-05-07 07:24 -2.01723 -1.28682 6535 ft 369 kts 340°
2026-05-07 07:24 -1.99286 -1.29587 6759 ft 370 kts 341°
2026-05-07 07:24 -1.96910 -1.30485 6993 ft 370 kts 341°
2026-05-07 07:24 -1.94496 -1.31400 7215 ft 370 kts 341°
2026-05-07 07:25 -1.89666 -1.33251 7705 ft 373 kts 341°
2026-05-07 07:25 -1.87244 -1.34207 7948 ft 375 kts 341°
2026-05-07 07:25 -1.84820 -1.35160 8189 ft 375 kts 340°
2026-05-07 07:26 -1.82376 -1.36116 8438 ft 377 kts 341°
2026-05-07 07:26 -1.79932 -1.37075 8694 ft 378 kts 341°
2026-05-07 07:26 -1.77480 -1.38042 8934 ft 379 kts 341°
2026-05-07 07:26 -1.75020 -1.39016 9179 ft 381 kts 341°
2026-05-07 07:27 -1.72552 -1.39993 9428 ft 382 kts 341°
2026-05-07 07:27 -1.70079 -1.40972 9685 ft 383 kts 341°
2026-05-07 07:27 -1.67591 -1.41961 9919 ft 384 kts 341°
2026-05-07 07:27 -1.65131 -1.42941 10151 ft 386 kts 341°
2026-05-07 07:28 -1.62636 -1.43935 10385 ft 387 kts 341°
2026-05-07 07:28 -1.60124 -1.44934 10618 ft 389 kts 341°
2026-05-07 07:28 -1.57598 -1.45938 10849 ft 391 kts 341°
2026-05-07 07:28 -1.55062 -1.46948 11088 ft 393 kts 341°
2026-05-07 07:29 -1.52513 -1.47962 11322 ft 395 kts 341°
2026-05-07 07:29 -1.49945 -1.48982 11550 ft 397 kts 341°
2026-05-07 07:29 -1.47373 -1.50002 11800 ft 399 kts 341°
2026-05-07 07:29 -1.44783 -1.51028 12049 ft 401 kts 341°
2026-05-07 07:30 -1.42183 -1.52055 12293 ft 403 kts 341°
2026-05-07 07:30 -1.39569 -1.53089 12543 ft 404 kts 341°
2026-05-07 07:30 -1.36950 -1.54124 12780 ft 406 kts 341°
2026-05-07 07:30 -1.34347 -1.55153 13039 ft 408 kts 341°
2026-05-07 07:31 -1.31700 -1.56196 13282 ft 409 kts 341°
2026-05-07 07:31 -1.29041 -1.57243 13546 ft 411 kts 341°
2026-05-07 07:31 -1.26374 -1.58291 13797 ft 413 kts 341°
2026-05-07 07:31 -1.23685 -1.59346 14022 ft 415 kts 341°
2026-05-07 07:32 -1.20989 -1.60402 14249 ft 417 kts 341°
2026-05-07 07:32 -1.18278 -1.61460 14486 ft 418 kts 341°
2026-05-07 07:32 -1.15560 -1.62518 14722 ft 420 kts 341°
2026-05-07 07:32 -1.12830 -1.63578 14927 ft 421 kts 341°
2026-05-07 07:33 -1.10095 -1.64636 15168 ft 422 kts 341°
2026-05-07 07:33 -1.07343 -1.65695 15411 ft 424 kts 341°
2026-05-07 07:33 -1.04588 -1.66751 15645 ft 425 kts 341°
2026-05-07 07:33 -1.01823 -1.67810 15883 ft 426 kts 341°
2026-05-07 07:34 -0.99052 -1.68868 16123 ft 427 kts 341°
2026-05-07 07:34 -0.96268 -1.69925 16365 ft 429 kts 341°
2026-05-07 07:34 -0.93470 -1.70984 16609 ft 430 kts 341°
2026-05-07 07:34 -0.90668 -1.72045 16855 ft 432 kts 341°
2026-05-07 07:35 -0.87851 -1.73106 17103 ft 434 kts 341°
2026-05-07 07:35 -0.85052 -1.74155 17353 ft 435 kts 341°
2026-05-07 07:35 -0.82206 -1.75218 17606 ft 437 kts 341°
2026-05-07 07:35 -0.79358 -1.76284 17856 ft 439 kts 341°
2026-05-07 07:36 -0.76481 -1.77352 18105 ft 441 kts 341°
2026-05-07 07:36 -0.73605 -1.78416 18327 ft 443 kts 341°
2026-05-07 07:36 -0.70708 -1.79496 18559 ft 445 kts 341°
2026-05-07 07:36 -0.67801 -1.80583 18791 ft 447 kts 341°
2026-05-07 07:37 -0.64875 -1.81676 19012 ft 450 kts 341°
2026-05-07 07:37 -0.61927 -1.82775 19239 ft 452 kts 341°
2026-05-07 07:37 -0.58975 -1.83880 19476 ft 455 kts 341°
2026-05-07 07:37 -0.56009 -1.84991 19711 ft 457 kts 341°
2026-05-07 07:38 -0.53017 -1.86108 19951 ft 459 kts 341°
2026-05-07 07:38 -0.50019 -1.87227 20184 ft 461 kts 341°
2026-05-07 07:38 -0.47002 -1.88356 20436 ft 463 kts 341°
2026-05-07 07:38 -0.44009 -1.89474 20685 ft 466 kts 341°
2026-05-07 07:39 -0.40955 -1.90612 20932 ft 468 kts 341°
2026-05-07 07:39 -0.37900 -1.91751 21168 ft 471 kts 341°
2026-05-07 07:39 -0.34812 -1.92902 21397 ft 474 kts 341°
2026-05-07 07:39 -0.31718 -1.94053 21660 ft 476 kts 341°
2026-05-07 07:40 -0.28597 -1.95212 21908 ft 478 kts 341°
2026-05-07 07:40 -0.25476 -1.96373 22165 ft 481 kts 341°
2026-05-07 07:40 -0.22329 -1.97543 22434 ft 483 kts 341°
2026-05-07 07:40 -0.19174 -1.98715 22693 ft 485 kts 341°
2026-05-07 07:41 -0.16000 -1.99894 22946 ft 486 kts 341°
2026-05-07 07:41 -0.12823 -2.01075 23213 ft 488 kts 341°
2026-05-07 07:41 -0.09637 -2.02259 23495 ft 489 kts 341°
2026-05-07 07:41 -0.06435 -2.03448 23701 ft 491 kts 341°
2026-05-07 07:42 -0.03229 -2.04638 23919 ft 493 kts 341°
2026-05-07 07:42 -0.00014 -2.05831 24161 ft 493 kts 341°
2026-05-07 07:42 0.03211 -2.07026 24387 ft 494 kts 341°
2026-05-07 07:42 0.06438 -2.08222 24610 ft 495 kts 341°
2026-05-07 07:43 0.09674 -2.09420 24823 ft 497 kts 341°
2026-05-07 07:43 0.12922 -2.10621 25048 ft 498 kts 341°
2026-05-07 07:43 0.16182 -2.11825 25288 ft 499 kts 341°
2026-05-07 07:43 0.19434 -2.13026 25524 ft 499 kts 341°
2026-05-07 07:44 0.22651 -2.14213 25769 ft 500 kts 341°
2026-05-07 07:44 0.25920 -2.15418 26004 ft 500 kts 341°
2026-05-07 07:44 0.29192 -2.16623 26244 ft 501 kts 341°
2026-05-07 07:44 0.32468 -2.17830 26494 ft 501 kts 341°
2026-05-07 07:45 0.35742 -2.19034 26725 ft 502 kts 341°
2026-05-07 07:45 0.39025 -2.20241 26966 ft 503 kts 341°
2026-05-07 07:45 0.42305 -2.21447 27188 ft 503 kts 341°
2026-05-07 07:45 0.45595 -2.22656 27445 ft 503 kts 341°
2026-05-07 07:46 0.48879 -2.23864 27684 ft 503 kts 341°
2026-05-07 07:46 0.52165 -2.25072 27933 ft 503 kts 341°
2026-05-07 07:46 0.55448 -2.26279 28176 ft 503 kts 341°
2026-05-07 07:46 0.58736 -2.27487 28425 ft 503 kts 341°
2026-05-07 07:47 0.62020 -2.28694 28682 ft 503 kts 341°
2026-05-07 07:47 0.65308 -2.29900 28954 ft 502 kts 341°
2026-05-07 07:47 0.68592 -2.31104 29219 ft 502 kts 341°
2026-05-07 07:47 0.71867 -2.32303 29504 ft 501 kts 341°
2026-05-07 07:48 0.75144 -2.33501 29782 ft 500 kts 341°
2026-05-07 07:48 0.78366 -2.34678 30044 ft 499 kts 341°
2026-05-07 07:48 0.81667 -2.35887 30274 ft 499 kts 341°
2026-05-07 07:48 0.84927 -2.37083 30511 ft 498 kts 341°
2026-05-07 07:49 0.88132 -2.38260 30745 ft 497 kts 341°
2026-05-07 07:49 0.91420 -2.39469 30974 ft 496 kts 341°
2026-05-07 07:49 0.94612 -2.40643 31193 ft 495 kts 341°
2026-05-07 07:49 0.97841 -2.41832 31430 ft 494 kts 341°
2026-05-07 07:50 1.01068 -2.43021 31663 ft 493 kts 341°
2026-05-07 07:50 1.04280 -2.44205 31883 ft 492 kts 341°
2026-05-07 07:50 1.07489 -2.45389 32129 ft 490 kts 341°
2026-05-07 07:50 1.10686 -2.46570 32381 ft 489 kts 341°
2026-05-07 07:51 1.13871 -2.47747 32632 ft 487 kts 341°
2026-05-07 07:51 1.17053 -2.48922 32774 ft 488 kts 341°
2026-05-07 07:51 1.20245 -2.50098 32859 ft 490 kts 341°
2026-05-07 07:52 1.26676 -2.52462 32935 ft 495 kts 341°
2026-05-07 07:52 1.33193 -2.54851 32947 ft 501 kts 341°
2026-05-07 07:53 1.39778 -2.57260 32944 ft 505 kts 341°
2026-05-07 07:53 1.46400 -2.59679 32943 ft 507 kts 341°
2026-05-07 07:54 1.53044 -2.62102 32931 ft 508 kts 341°
2026-05-07 07:54 1.59639 -2.64498 32931 ft 507 kts 341°
2026-05-07 07:55 1.66259 -2.66894 32939 ft 505 kts 341°
2026-05-07 07:55 1.72865 -2.69282 32935 ft 504 kts 341°
2026-05-07 07:56 1.79461 -2.71665 32938 ft 503 kts 341°
2026-05-07 07:56 1.86046 -2.74043 32937 ft 503 kts 341°
2026-05-07 07:57 1.92595 -2.76406 32933 ft 502 kts 341°
2026-05-07 07:57 1.99177 -2.78771 32939 ft 502 kts 341°
2026-05-07 07:58 2.05764 -2.81131 32938 ft 503 kts 342°
2026-05-07 07:58 2.12351 -2.83488 32938 ft 503 kts 342°
2026-05-07 07:59 2.18958 -2.85848 32941 ft 504 kts 342°
2026-05-07 07:59 2.25565 -2.88208 32940 ft 504 kts 342°
2026-05-07 08:00 2.32183 -2.90567 32937 ft 504 kts 342°
2026-05-07 08:00 2.37680 -2.92521 32944 ft 505 kts 342°
2026-05-07 08:01 2.45420 -2.95268 32949 ft 505 kts 342°
2026-05-07 08:01 2.52004 -2.97599 32944 ft 505 kts 342°
2026-05-07 08:02 2.58631 -2.99944 32946 ft 505 kts 342°
2026-05-07 08:02 2.64182 -3.01905 32945 ft 505 kts 342°
2026-05-07 08:03 2.70772 -3.04230 32941 ft 505 kts 342°
2026-05-07 08:03 2.77411 -3.06563 32950 ft 506 kts 342°
2026-05-07 08:04 2.84053 -3.08904 32946 ft 507 kts 342°
2026-05-07 08:04 2.90709 -3.11251 32949 ft 507 kts 342°
2026-05-07 08:05 2.97367 -3.13599 32952 ft 507 kts 342°
2026-05-07 08:05 3.04030 -3.15948 32950 ft 507 kts 342°
2026-05-07 08:06 3.10695 -3.18290 32947 ft 508 kts 342°
2026-05-07 08:06 3.17371 -3.20626 32948 ft 508 kts 342°
2026-05-07 08:07 3.24040 -3.22955 32949 ft 508 kts 342°
2026-05-07 08:07 3.30723 -3.25286 32952 ft 508 kts 342°
2026-05-07 08:08 3.37401 -3.27614 32953 ft 508 kts 342°
2026-05-07 08:08 3.44033 -3.29925 32952 ft 508 kts 342°
2026-05-07 08:09 3.50709 -3.32249 32954 ft 508 kts 342°
2026-05-07 08:09 3.57385 -3.34572 32955 ft 507 kts 342°
2026-05-07 08:10 3.64057 -3.36891 32954 ft 507 kts 342°
2026-05-07 08:10 3.70724 -3.39208 32954 ft 507 kts 342°
2026-05-07 08:11 3.77409 -3.41530 32956 ft 507 kts 342°
2026-05-07 08:11 3.84091 -3.43848 32949 ft 508 kts 342°
2026-05-07 08:12 3.90733 -3.46151 32958 ft 509 kts 342°
2026-05-07 08:12 3.97432 -3.48475 32958 ft 510 kts 342°
2026-05-07 08:13 4.04142 -3.50802 32959 ft 511 kts 342°
2026-05-07 08:13 4.10872 -3.53135 32952 ft 511 kts 342°
2026-05-07 08:14 4.17596 -3.55464 32951 ft 511 kts 342°
2026-05-07 08:14 4.24326 -3.57788 32953 ft 512 kts 342°
2026-05-07 08:15 4.31060 -3.60103 32959 ft 512 kts 342°